Wetterdaten: Freitag, 17.02.2023
Datum Zeit Temp. Aussen Temp. o. S. Temp +5cm Feuchte Auss Luftdruck Regen Sonnenschein Regendauer Solar Windben Empfang
17.02.2023 00:00 10,6 C 10,0 C 6,1 C 89 % 1021,0 hPa 0,0 l/m 0 min 0 min 0 W/m 22,5 km/h (4 Bft) 97,87 %
17.02.2023 00:02 10,6 C 10,0 C 6,1 C 89 % 1021,0 hPa 0,0 l/m 0 min 0 min 0 W/m 16,1 km/h (3 Bft) 97,30 %
17.02.2023 00:04 10,6 C 10,0 C 6,1 C 89 % 1021,1 hPa 0,0 l/m 0 min 0 min 0 W/m 16,1 km/h (3 Bft) 97,87 %
17.02.2023 00:07 10,6 C 10,0 C 6,1 C 89 % 1021,1 hPa 0,0 l/m 0 min 0 min 0 W/m 29,0 km/h (5 Bft) 97,44 %
17.02.2023 00:10 10,6 C 10,0 C 6,1 C 89 % 1021,2 hPa 0,0 l/m 0 min 0 min 0 W/m 22,5 km/h (4 Bft) 97,26 %
17.02.2023 00:12 10,6 C 10,0 C 6,1 C 89 % 1021,1 hPa 0,0 l/m 0 min 0 min 0 W/m 16,1 km/h (3 Bft) 97,37 %
17.02.2023 00:14 10,6 C 10,0 C 6,1 C 89 % 1021,1 hPa 0,0 l/m 0 min 0 min 0 W/m 22,5 km/h (4 Bft) 97,83 %
17.02.2023 00:16 10,6 C 10,0 C 6,1 C 89 % 1021,1 hPa 0,0 l/m 0 min 0 min 0 W/m 19,3 km/h (3 Bft) 97,87 %
17.02.2023 00:18 10,6 C 10,0 C 6,1 C 89 % 1021,1 hPa 0,0 l/m 0 min 0 min 0 W/m 29,0 km/h (5 Bft) 93,62 %
17.02.2023 00:20 10,7 C 10,0 C 6,1 C 89 % 1021,1 hPa 0,0 l/m 0 min 0 min 0 W/m 19,3 km/h (3 Bft) 93,62 %
17.02.2023 00:22 10,7 C 10,0 C 6,1 C 89 % 1021,2 hPa 0,0 l/m 0 min 0 min 0 W/m 12,9 km/h (3 Bft) 100,00 %
17.02.2023 00:24 10,7 C 10,0 C 6,1 C 89 % 1021,3 hPa 0,0 l/m 0 min 0 min 0 W/m 25,7 km/h (4 Bft) 97,87 %
17.02.2023 00:26 10,7 C 10,0 C 6,1 C 89 % 1021,3 hPa 0,0 l/m 0 min 0 min 0 W/m 22,5 km/h (4 Bft) 93,48 %
17.02.2023 00:28 10,7 C 10,0 C 6,1 C 89 % 1021,3 hPa 0,0 l/m 0 min 0 min 0 W/m 16,1 km/h (3 Bft) 97,87 %
17.02.2023 00:30 10,7 C 10,0 C 6,1 C 89 % 1021,4 hPa 0,0 l/m 0 min 0 min 0 W/m 25,7 km/h (4 Bft) 97,96 %
17.02.2023 00:32 10,7 C 10,0 C 6,1 C 89 % 1021,2 hPa 0,0 l/m 0 min 0 min 0 W/m 29,0 km/h (5 Bft) 95,74 %
17.02.2023 00:34 10,7 C 10,0 C 6,1 C 89 % 1021,2 hPa 0,0 l/m 0 min 0 min 0 W/m 19,3 km/h (3 Bft) 95,74 %
17.02.2023 00:36 10,7 C 10,0 C 6,1 C 89 % 1021,2 hPa 0,0 l/m 0 min 0 min 0 W/m 12,9 km/h (3 Bft) 97,87 %
17.02.2023 00:38 10,7 C 10,0 C 6,1 C 89 % 1021,2 hPa 0,0 l/m 0 min 0 min 0 W/m 12,9 km/h (3 Bft) 97,87 %
17.02.2023 00:40 10,7 C 10,0 C 6,1 C 89 % 1021,2 hPa 0,0 l/m 0 min 0 min 0 W/m 9,7 km/h (2 Bft) 97,87 %
17.02.2023 00:42 10,7 C 10,0 C 6,1 C 89 % 1021,2 hPa 0,0 l/m 0 min 0 min 0 W/m 16,1 km/h (3 Bft) 97,83 %
17.02.2023 00:44 10,7 C 10,0 C 6,1 C 89 % 1021,2 hPa 0,0 l/m 0 min 0 min 0 W/m 19,3 km/h (3 Bft) 97,87 %
17.02.2023 00:46 10,7 C 10,0 C 6,1 C 89 % 1021,2 hPa 0,0 l/m 0 min 0 min 0 W/m 29,0 km/h (5 Bft) 95,74 %
17.02.2023 00:48 10,7 C 10,0 C 6,1 C 89 % 1021,1 hPa 0,0 l/m 0 min 0 min 0 W/m 16,1 km/h (3 Bft) 95,74 %
17.02.2023 00:50 10,7 C 10,0 C 6,1 C 89 % 1021,1 hPa 0,0 l/m 0 min 0 min 0 W/m 19,3 km/h (3 Bft) 97,87 %
17.02.2023 00:52 10,7 C 10,0 C 6,1 C 89 % 1021,2 hPa 0,0 l/m 0 min 0 min 0 W/m 22,5 km/h (4 Bft) 95,74 %
17.02.2023 00:54 10,7 C 10,0 C 6,1 C 89 % 1021,1 hPa 0,0 l/m 0 min 0 min 0 W/m 25,7 km/h (4 Bft) 95,65 %
17.02.2023 00:56 10,7 C 10,0 C 6,1 C 89 % 1021,1 hPa 0,0 l/m 0 min 0 min 0 W/m 19,3 km/h (3 Bft) 97,87 %
17.02.2023 00:58 10,8 C 10,0 C 6,1 C 89 % 1021,1 hPa 0,0 l/m 0 min 0 min 0 W/m 16,1 km/h (3 Bft) 97,87 %
17.02.2023 01:00 10,8 C 10,0 C 6,1 C 89 % 1021,1 hPa 0,0 l/m 0 min 0 min 0 W/m 32,2 km/h (5 Bft) 97,87 %
17.02.2023 01:02 10,8 C 10,0 C 6,7 C 89 % 1021,1 hPa 0,0 l/m 0 min 0 min 0 W/m 22,5 km/h (4 Bft) 93,62 %
17.02.2023 01:04 10,8 C 10,0 C 6,7 C 89 % 1021,1 hPa 0,0 l/m 0 min 0 min 0 W/m 12,9 km/h (3 Bft) 95,74 %
17.02.2023 01:06 10,8 C 10,0 C 6,1 C 89 % 1021,0 hPa 0,0 l/m 0 min 0 min 0 W/m 16,1 km/h (3 Bft) 93,62 %
17.02.2023 01:08 10,8 C 10,0 C 6,1 C 89 % 1021,1 hPa 0,0 l/m 0 min 0 min 0 W/m 19,3 km/h (3 Bft) 93,48 %
17.02.2023 01:10 10,8 C 10,0 C 6,7 C 89 % 1021,1 hPa 0,0 l/m 0 min 0 min 0 W/m 29,0 km/h (5 Bft) 95,74 %
17.02.2023 01:12 10,8 C 10,0 C 6,7 C 89 % 1021,0 hPa 0,0 l/m 0 min 0 min 0 W/m 35,4 km/h (5 Bft) 97,92 %
17.02.2023 01:14 10,8 C 10,0 C 6,7 C 89 % 1021,0 hPa 0,0 l/m 0 min 0 min 0 W/m 9,7 km/h (2 Bft) 97,87 %
17.02.2023 01:16 10,8 C 10,0 C 6,7 C 89 % 1021,0 hPa 0,0 l/m 0 min 0 min 0 W/m 16,1 km/h (3 Bft) 95,74 %
17.02.2023 01:18 10,8 C 10,0 C 6,7 C 89 % 1021,0 hPa 0,0 l/m 0 min 0 min 0 W/m 19,3 km/h (3 Bft) 97,83 %
17.02.2023 01:20 10,8 C 10,0 C 6,7 C 89 % 1021,0 hPa 0,0 l/m 0 min 0 min 0 W/m 12,9 km/h (3 Bft) 97,87 %
17.02.2023 01:22 10,8 C 10,0 C 6,1 C 89 % 1021,0 hPa 0,0 l/m 0 min 0 min 0 W/m 16,1 km/h (3 Bft) 93,62 %
17.02.2023 01:24 10,8 C 10,0 C 6,1 C 89 % 1021,0 hPa 0,0 l/m 0 min 0 min 0 W/m 16,1 km/h (3 Bft) 97,87 %
17.02.2023 01:26 10,8 C 10,0 C 6,7 C 89 % 1021,0 hPa 0,0 l/m 0 min 0 min 0 W/m 22,5 km/h (4 Bft) 95,74 %
17.02.2023 01:28 10,8 C 10,0 C 6,7 C 89 % 1020,9 hPa 0,0 l/m 0 min 0 min 0 W/m 19,3 km/h (3 Bft) 97,87 %
17.02.2023 01:30 10,8 C 10,0 C 6,7 C 89 % 1021,0 hPa 0,0 l/m 0 min 0 min 0 W/m 12,9 km/h (3 Bft) 97,83 %
17.02.2023 01:32 10,8 C 10,0 C 6,1 C 89 % 1021,0 hPa 0,0 l/m 0 min 0 min 0 W/m 12,9 km/h (3 Bft) 97,87 %
17.02.2023 01:34 10,8 C 10,0 C 6,1 C 89 % 1021,0 hPa 0,0 l/m 0 min 0 min 0 W/m 22,5 km/h (4 Bft) 97,87 %
17.02.2023 01:36 10,8 C 10,0 C 6,7 C 89 % 1021,0 hPa 0,0 l/m 0 min 0 min 0 W/m 25,7 km/h (4 Bft) 100,00 %
17.02.2023 01:38 10,8 C 10,0 C 6,7 C 89 % 1020,9 hPa 0,0 l/m 0 min 0 min 0 W/m 16,1 km/h (3 Bft) 100,00 %
17.02.2023 01:40 10,8 C 10,0 C 6,1 C 89 % 1020,9 hPa 0,0 l/m 0 min 0 min 0 W/m 16,1 km/h (3 Bft) 100,00 %
17.02.2023 01:42 10,8 C 10,0 C 6,1 C 89 % 1021,0 hPa 0,0 l/m 0 min 0 min 0 W/m 35,4 km/h (5 Bft) 100,00 %
17.02.2023 01:44 10,8 C 10,0 C 6,1 C 89 % 1020,9 hPa 0,0 l/m 0 min 0 min 0 W/m 16,1 km/h (3 Bft) 100,00 %
17.02.2023 01:46 10,8 C 10,0 C 6,1 C 89 % 1021,0 hPa 0,0 l/m 0 min 0 min 0 W/m 16,1 km/h (3 Bft) 100,00 %
17.02.2023 01:48 10,8 C 10,0 C 6,7 C 89 % 1021,0 hPa 0,0 l/m 0 min 0 min 0 W/m 19,3 km/h (3 Bft) 100,00 %
17.02.2023 01:50 10,8 C 10,0 C 6,7 C 89 % 1020,9 hPa 0,0 l/m 0 min 0 min 0 W/m 22,5 km/h (4 Bft) 100,00 %
17.02.2023 01:52 10,8 C 10,0 C 6,7 C 89 % 1020,9 hPa 0,0 l/m 0 min 0 min 0 W/m 25,7 km/h (4 Bft) 97,87 %
17.02.2023 01:54 10,8 C 10,0 C 6,1 C 89 % 1020,9 hPa 0,0 l/m 0 min 0 min 0 W/m 35,4 km/h (5 Bft) 100,00 %
17.02.2023 01:56 10,8 C 10,0 C 6,1 C 89 % 1020,9 hPa 0,0 l/m 0 min 0 min 0 W/m 16,1 km/h (3 Bft) 100,00 %
17.02.2023 01:58 10,8 C 10,0 C 6,1 C 90 % 1020,9 hPa 0,0 l/m 0 min 0 min 0 W/m 19,3 km/h (3 Bft) 100,00 %
17.02.2023 02:00 10,8 C 10,0 C 6,1 C 90 % 1020,8 hPa 0,0 l/m 0 min 0 min 0 W/m 22,5 km/h (4 Bft) 100,00 %
17.02.2023 02:02 10,8 C 10,0 C 6,1 C 90 % 1020,8 hPa 0,0 l/m 0 min 0 min 0 W/m 12,9 km/h (3 Bft) 95,74 %
17.02.2023 02:04 10,8 C 10,0 C 6,1 C 90 % 1020,8 hPa 0,0 l/m 0 min 0 min 0 W/m 16,1 km/h (3 Bft) 100,00 %
17.02.2023 02:06 10,7 C 10,0 C 6,1 C 90 % 1020,7 hPa 0,0 l/m 0 min 0 min 0 W/m 16,1 km/h (3 Bft) 100,00 %
17.02.2023 02:08 10,7 C 10,0 C 6,1 C 90 % 1020,8 hPa 0,0 l/m 0 min 0 min 0 W/m 12,9 km/h (3 Bft) 100,00 %
17.02.2023 02:10 10,7 C 10,0 C 6,1 C 90 % 1020,7 hPa 0,0 l/m 0 min 0 min 0 W/m 22,5 km/h (4 Bft) 100,00 %
17.02.2023 02:12 10,7 C 10,0 C 6,1 C 90 % 1020,7 hPa 0,0 l/m 0 min 0 min 0 W/m 19,3 km/h (3 Bft) 100,00 %
17.02.2023 02:14 10,7 C 10,0 C 6,1 C 90 % 1020,8 hPa 0,0 l/m 0 min 0 min 0 W/m 22,5 km/h (4 Bft) 97,87 %
17.02.2023 02:16 10,7 C 10,0 C 6,1 C 91 % 1020,6 hPa 0,0 l/m 0 min 0 min 0 W/m 25,7 km/h (4 Bft) 97,87 %
17.02.2023 02:18 10,7 C 10,0 C 6,1 C 91 % 1020,7 hPa 0,0 l/m 0 min 0 min 0 W/m 19,3 km/h (3 Bft) 100,00 %
17.02.2023 02:20 10,7 C 10,0 C 6,1 C 91 % 1020,6 hPa 0,0 l/m 0 min 0 min 0 W/m 22,5 km/h (4 Bft) 100,00 %
17.02.2023 02:22 10,7 C 10,0 C 6,1 C 91 % 1020,5 hPa 0,0 l/m 0 min 0 min 0 W/m 19,3 km/h (3 Bft) 95,74 %
17.02.2023 02:24 10,6 C 10,0 C 6,1 C 91 % 1020,6 hPa 0,0 l/m 0 min 0 min 0 W/m 16,1 km/h (3 Bft) 97,83 %
17.02.2023 02:26 10,6 C 10,0 C 6,1 C 91 % 1020,6 hPa 0,0 l/m 0 min 0 min 0 W/m 22,5 km/h (4 Bft) 46,51 %
17.02.2023 02:28 10,6 C 10,0 C 6,1 C 91 % 1020,6 hPa 0,0 l/m 0 min 0 min 0 W/m 19,3 km/h (3 Bft) 97,87 %
17.02.2023 02:30 10,6 C 10,0 C 6,1 C 91 % 1020,6 hPa 0,0 l/m 0 min 0 min 0 W/m 19,3 km/h (3 Bft) 95,74 %
17.02.2023 02:32 10,6 C 10,0 C 6,1 C 91 % 1020,6 hPa 0,0 l/m 0 min 0 min 0 W/m 19,3 km/h (3 Bft) 97,87 %
17.02.2023 02:34 10,6 C 10,0 C 6,1 C 91 % 1020,5 hPa 0,0 l/m 0 min 0 min 0 W/m 16,1 km/h (3 Bft) 97,92 %
17.02.2023 02:36 10,6 C 10,0 C 6,1 C 91 % 1020,5 hPa 0,0 l/m 0 min 0 min 0 W/m 16,1 km/h (3 Bft) 97,87 %
17.02.2023 02:38 10,7 C 10,0 C 6,1 C 91 % 1020,5 hPa 0,0 l/m 0 min 0 min 0 W/m 25,7 km/h (4 Bft) 95,65 %
17.02.2023 02:40 10,7 C 10,0 C 6,1 C 91 % 1020,4 hPa 0,0 l/m 0 min 0 min 0 W/m 16,1 km/h (3 Bft) 97,87 %
17.02.2023 02:42 10,7 C 10,0 C 6,1 C 91 % 1020,5 hPa 0,0 l/m 0 min 0 min 0 W/m 22,5 km/h (4 Bft) 93,62 %
17.02.2023 02:44 10,7 C 10,0 C 6,1 C 91 % 1020,4 hPa 0,0 l/m 0 min 0 min 0 W/m 16,1 km/h (3 Bft) 97,87 %
17.02.2023 02:46 10,7 C 10,0 C 6,1 C 91 % 1020,4 hPa 0,0 l/m 0 min 0 min 0 W/m 19,3 km/h (3 Bft) 95,74 %
17.02.2023 02:48 10,7 C 10,0 C 6,1 C 91 % 1020,4 hPa 0,0 l/m 0 min 0 min 0 W/m 19,3 km/h (3 Bft) 97,87 %
17.02.2023 02:50 10,7 C 10,0 C 6,1 C 91 % 1020,4 hPa 0,0 l/m 0 min 0 min 0 W/m 16,1 km/h (3 Bft) 97,87 %
17.02.2023 02:52 10,7 C 10,0 C 6,7 C 91 % 1020,4 hPa 0,0 l/m 0 min 0 min 0 W/m 19,3 km/h (3 Bft) 95,65 %
17.02.2023 02:54 10,7 C 10,0 C 6,1 C 91 % 1020,3 hPa 0,0 l/m 0 min 0 min 0 W/m 9,7 km/h (2 Bft) 93,62 %
17.02.2023 02:56 10,7 C 10,0 C 6,1 C 91 % 1020,2 hPa 0,0 l/m 0 min 0 min 0 W/m 16,1 km/h (3 Bft) 95,74 %
17.02.2023 02:58 10,7 C 10,0 C 6,1 C 91 % 1020,2 hPa 0,0 l/m 0 min 0 min 0 W/m 12,9 km/h (3 Bft) 95,74 %
17.02.2023 03:00 10,7 C 10,0 C 6,7 C 91 % 1020,3 hPa 0,0 l/m 0 min 0 min 0 W/m 22,5 km/h (4 Bft) 93,62 %
17.02.2023 03:02 10,7 C 10,0 C 6,1 C 91 % 1020,1 hPa 0,0 l/m 0 min 0 min 0 W/m 12,9 km/h (3 Bft) 89,36 %
17.02.2023 03:04 10,7 C 10,0 C 6,7 C 91 % 1020,1 hPa 0,0 l/m 0 min 0 min 0 W/m 19,3 km/h (3 Bft) 91,49 %
17.02.2023 03:06 10,7 C 10,0 C 6,7 C 91 % 1020,1 hPa 0,0 l/m 0 min 0 min 0 W/m 16,1 km/h (3 Bft) 93,22 %
17.02.2023 03:08 10,7 C 10,0 C 6,1 C 91 % 1020,1 hPa 0,0 l/m 0 min 0 min 0 W/m 12,9 km/h (3 Bft) 94,44 %
17.02.2023 03:10 10,7 C 10,0 C 6,7 C 91 % 1020,0 hPa 0,0 l/m 0 min 0 min 0 W/m 19,3 km/h (3 Bft) 95,74 %
17.02.2023 03:12 10,7 C 10,0 C 6,7 C 91 % 1020,0 hPa 0,0 l/m 0 min 0 min 0 W/m 16,1 km/h (3 Bft) 93,62 %
17.02.2023 03:14 10,7 C 10,0 C 6,7 C 91 % 1020,1 hPa 0,0 l/m 0 min 0 min 0 W/m 16,1 km/h (3 Bft) 93,62 %
17.02.2023 03:16 10,7 C 10,0 C 6,7 C 91 % 1020,0 hPa 0,0 l/m 0 min 0 min 0 W/m 16,1 km/h (3 Bft) 93,48 %
17.02.2023 03:18 10,7 C 10,0 C 6,7 C 91 % 1020,1 hPa 0,0 l/m 0 min 0 min 0 W/m 16,1 km/h (3 Bft) 95,74 %
17.02.2023 03:20 10,7 C 10,0 C 6,7 C 91 % 1020,0 hPa 0,0 l/m 0 min 0 min 0 W/m 22,5 km/h (4 Bft) 95,74 %
17.02.2023 03:22 10,8 C 10,0 C 6,7 C 91 % 1020,2 hPa 0,0 l/m 0 min 0 min 0 W/m 35,4 km/h (5 Bft) 93,62 %
17.02.2023 03:24 10,8 C 10,0 C 6,7 C 91 % 1020,1 hPa 0,0 l/m 0 min 0 min 0 W/m 19,3 km/h (3 Bft) 95,74 %
17.02.2023 03:26 10,8 C 10,0 C 6,7 C 91 % 1020,1 hPa 0,0 l/m 0 min 0 min 0 W/m 25,7 km/h (4 Bft) 95,74 %
17.02.2023 03:28 10,8 C 10,0 C 6,7 C 91 % 1020,1 hPa 0,0 l/m 0 min 0 min 0 W/m 16,1 km/h (3 Bft) 95,74 %
17.02.2023 03:30 10,7 C 10,0 C 6,7 C 91 % 1020,2 hPa 0,0 l/m 0 min 0 min 0 W/m 19,3 km/h (3 Bft) 95,74 %
17.02.2023 03:32 10,7 C 10,0 C 6,7 C 91 % 1020,1 hPa 0,0 l/m 0 min 0 min 0 W/m 12,9 km/h (3 Bft) 93,62 %
17.02.2023 03:34 10,8 C 10,0 C 6,7 C 91 % 1020,2 hPa 0,0 l/m 0 min 0 min 0 W/m 12,9 km/h (3 Bft) 95,74 %
17.02.2023 03:36 10,8 C 10,0 C 6,7 C 91 % 1020,1 hPa 0,0 l/m 0 min 0 min 0 W/m 16,1 km/h (3 Bft) 97,87 %
17.02.2023 03:38 10,7 C 10,0 C 6,7 C 91 % 1020,1 hPa 0,0 l/m 0 min 0 min 0 W/m 6,4 km/h (2 Bft) 93,62 %
17.02.2023 03:40 10,7 C 10,0 C 6,7 C 91 % 1020,0 hPa 0,0 l/m 0 min 0 min 0 W/m 12,9 km/h (3 Bft) 95,74 %
17.02.2023 03:42 10,7 C 10,0 C 6,7 C 91 % 1020,0 hPa 0,0 l/m 0 min 0 min 0 W/m 22,5 km/h (4 Bft) 95,74 %
17.02.2023 03:44 10,7 C 10,0 C 6,7 C 91 % 1020,0 hPa 0,0 l/m 0 min 0 min 0 W/m 19,3 km/h (3 Bft) 97,83 %
17.02.2023 03:46 10,7 C 10,0 C 6,7 C 91 % 1019,9 hPa 0,0 l/m 0 min 0 min 0 W/m 12,9 km/h (3 Bft) 97,87 %
17.02.2023 03:48 10,7 C 10,0 C 6,7 C 91 % 1019,8 hPa 0,0 l/m 0 min 0 min 0 W/m 12,9 km/h (3 Bft) 100,00 %
17.02.2023 03:50 10,7 C 10,0 C 6,7 C 91 % 1019,9 hPa 0,0 l/m 0 min 0 min 0 W/m 12,9 km/h (3 Bft) 97,87 %
17.02.2023 03:52 10,7 C 10,0 C 6,1 C 91 % 1019,9 hPa 0,0 l/m 0 min 0 min 0 W/m 6,4 km/h (2 Bft) 100,00 %
17.02.2023 03:54 10,7 C 10,0 C 6,1 C 91 % 1019,8 hPa 0,0 l/m 0 min 0 min 0 W/m 19,3 km/h (3 Bft) 100,00 %
17.02.2023 03:56 10,7 C 10,0 C 6,7 C 91 % 1019,8 hPa 0,0 l/m 0 min 0 min 0 W/m 19,3 km/h (3 Bft) 95,74 %
17.02.2023 03:58 10,7 C 10,0 C 6,7 C 91 % 1019,8 hPa 0,0 l/m 0 min 0 min 0 W/m 19,3 km/h (3 Bft) 100,00 %
17.02.2023 04:00 10,7 C 10,0 C 6,7 C 91 % 1019,7 hPa 0,0 l/m 0 min 0 min 0 W/m 12,9 km/h (3 Bft) 100,00 %
17.02.2023 04:02 10,7 C 10,0 C 6,7 C 91 % 1019,7 hPa 0,0 l/m 0 min 0 min 0 W/m 16,1 km/h (3 Bft) 100,00 %
17.02.2023 04:04 10,7 C 10,0 C 6,7 C 91 % 1019,7 hPa 0,0 l/m 0 min 0 min 0 W/m 16,1 km/h (3 Bft) 97,87 %
17.02.2023 04:06 10,7 C 10,0 C 6,7 C 91 % 1019,7 hPa 0,0 l/m 0 min 0 min 0 W/m 16,1 km/h (3 Bft) 100,00 %
17.02.2023 04:08 10,7 C 10,0 C 6,7 C 91 % 1019,6 hPa 0,0 l/m 0 min 0 min 0 W/m 19,3 km/h (3 Bft) 100,00 %
17.02.2023 04:10 10,7 C 10,0 C 6,7 C 91 % 1019,6 hPa 0,0 l/m 0 min 0 min 0 W/m 25,7 km/h (4 Bft) 100,00 %
17.02.2023 04:12 10,8 C 10,0 C 6,7 C 91 % 1019,5 hPa 0,0 l/m 0 min 0 min 0 W/m 16,1 km/h (3 Bft) 100,00 %
17.02.2023 04:14 10,8 C 10,0 C 6,7 C 91 % 1019,6 hPa 0,0 l/m 0 min 0 min 0 W/m 29,0 km/h (5 Bft) 100,00 %
17.02.2023 04:16 10,8 C 10,0 C 6,7 C 91 % 1019,5 hPa 0,0 l/m 0 min 0 min 0 W/m 19,3 km/h (3 Bft) 100,00 %
17.02.2023 04:18 10,8 C 10,0 C 6,7 C 91 % 1019,5 hPa 0,0 l/m 0 min 0 min 0 W/m 22,5 km/h (4 Bft) 97,96 %
17.02.2023 04:20 10,8 C 10,0 C 6,7 C 91 % 1019,5 hPa 0,0 l/m 0 min 0 min 0 W/m 16,1 km/h (3 Bft) 100,00 %
17.02.2023 04:22 10,8 C 10,0 C 6,7 C 91 % 1019,5 hPa 0,0 l/m 0 min 0 min 0 W/m 22,5 km/h (4 Bft) 100,00 %
17.02.2023 04:24 10,8 C 10,0 C 6,7 C 91 % 1019,5 hPa 0,0 l/m 0 min 0 min 0 W/m 29,0 km/h (5 Bft) 97,87 %
17.02.2023 04:26 10,8 C 10,0 C 6,7 C 91 % 1019,6 hPa 0,0 l/m 0 min 0 min 0 W/m 16,1 km/h (3 Bft) 63,83 %
17.02.2023 04:28 10,8 C 10,0 C 6,7 C 91 % 1019,6 hPa 0,0 l/m 0 min 0 min 0 W/m 22,5 km/h (4 Bft) 93,33 %
17.02.2023 04:30 10,8 C 10,0 C 6,7 C 91 % 1019,6 hPa 0,0 l/m 0 min 0 min 0 W/m 22,5 km/h (4 Bft) 100,00 %
17.02.2023 04:32 10,8 C 10,0 C 6,7 C 91 % 1019,6 hPa 0,0 l/m 0 min 0 min 0 W/m 19,3 km/h (3 Bft) 97,87 %
17.02.2023 04:34 10,8 C 10,0 C 6,7 C 91 % 1019,5 hPa 0,0 l/m 0 min 0 min 0 W/m 12,9 km/h (3 Bft) 100,00 %
17.02.2023 04:36 10,8 C 10,0 C 6,7 C 90 % 1019,4 hPa 0,0 l/m 0 min 0 min 0 W/m 19,3 km/h (3 Bft) 100,00 %
17.02.2023 04:38 10,8 C 10,0 C 6,7 C 90 % 1019,5 hPa 0,0 l/m 0 min 0 min 0 W/m 19,3 km/h (3 Bft) 97,87 %
17.02.2023 04:40 10,8 C 10,0 C 6,7 C 90 % 1019,5 hPa 0,0 l/m 0 min 0 min 0 W/m 25,7 km/h (4 Bft) 100,00 %
17.02.2023 04:42 10,8 C 10,0 C 6,7 C 90 % 1019,5 hPa 0,0 l/m 0 min 0 min 0 W/m 12,9 km/h (3 Bft) 100,00 %
17.02.2023 04:44 10,8 C 10,0 C 6,7 C 90 % 1019,5 hPa 0,0 l/m 0 min 0 min 0 W/m 25,7 km/h (4 Bft) 100,00 %
17.02.2023 04:46 10,8 C 10,0 C 6,7 C 90 % 1019,5 hPa 0,0 l/m 0 min 0 min 0 W/m 22,5 km/h (4 Bft) 100,00 %
17.02.2023 04:48 10,8 C 10,0 C 6,7 C 90 % 1019,4 hPa 0,0 l/m 0 min 0 min 0 W/m 29,0 km/h (5 Bft) 97,87 %
17.02.2023 04:50 10,8 C 10,0 C 6,7 C 90 % 1019,5 hPa 0,0 l/m 0 min 0 min 0 W/m 16,1 km/h (3 Bft) 97,83 %
17.02.2023 04:52 10,8 C 10,0 C 6,7 C 90 % 1019,5 hPa 0,0 l/m 0 min 0 min 0 W/m 19,3 km/h (3 Bft) 100,00 %
17.02.2023 04:54 10,8 C 10,0 C 6,7 C 90 % 1019,5 hPa 0,0 l/m 0 min 0 min 0 W/m 19,3 km/h (3 Bft) 97,87 %
17.02.2023 04:56 10,8 C 10,0 C 6,7 C 91 % 1019,4 hPa 0,0 l/m 0 min 0 min 0 W/m 25,7 km/h (4 Bft) 97,87 %
17.02.2023 04:58 10,8 C 10,0 C 6,7 C 91 % 1019,5 hPa 0,0 l/m 0 min 0 min 0 W/m 9,7 km/h (2 Bft) 97,87 %
17.02.2023 05:00 10,8 C 10,0 C 6,7 C 91 % 1019,6 hPa 0,0 l/m 0 min 0 min 0 W/m 19,3 km/h (3 Bft) 95,74 %
17.02.2023 05:02 10,8 C 10,0 C 6,7 C 91 % 1019,6 hPa 0,0 l/m 0 min 0 min 0 W/m 12,9 km/h (3 Bft) 97,87 %
17.02.2023 05:04 10,8 C 10,0 C 6,7 C 91 % 1019,5 hPa 0,0 l/m 0 min 0 min 0 W/m 12,9 km/h (3 Bft) 97,83 %
17.02.2023 05:06 10,8 C 10,0 C 6,7 C 90 % 1019,5 hPa 0,0 l/m 0 min 0 min 0 W/m 16,1 km/h (3 Bft) 97,87 %
17.02.2023 05:08 10,8 C 10,0 C 6,7 C 91 % 1019,6 hPa 0,0 l/m 0 min 0 min 0 W/m 22,5 km/h (4 Bft) 97,87 %
17.02.2023 05:10 10,8 C 10,0 C 6,7 C 91 % 1019,6 hPa 0,0 l/m 0 min 0 min 0 W/m 12,9 km/h (3 Bft) 97,87 %
17.02.2023 05:12 10,8 C 10,0 C 6,7 C 90 % 1019,6 hPa 0,0 l/m 0 min 0 min 0 W/m 12,9 km/h (3 Bft) 95,74 %
17.02.2023 05:14 10,8 C 10,0 C 6,7 C 90 % 1019,7 hPa 0,0 l/m 0 min 0 min 0 W/m 6,4 km/h (2 Bft) 95,74 %
17.02.2023 05:16 10,8 C 10,0 C 6,7 C 90 % 1019,7 hPa 0,0 l/m 0 min 0 min 0 W/m 16,1 km/h (3 Bft) 95,65 %
17.02.2023 05:18 10,8 C 10,0 C 6,7 C 90 % 1019,7 hPa 0,0 l/m 0 min 0 min 0 W/m 12,9 km/h (3 Bft) 93,62 %
17.02.2023 05:20 10,8 C 10,0 C 6,7 C 90 % 1019,8 hPa 0,0 l/m 0 min 0 min 0 W/m 25,7 km/h (4 Bft) 93,62 %
17.02.2023 05:22 10,8 C 10,0 C 6,7 C 90 % 1019,7 hPa 0,0 l/m 0 min 0 min 0 W/m 19,3 km/h (3 Bft) 95,74 %
17.02.2023 05:24 10,8 C 10,0 C 6,7 C 90 % 1019,6 hPa 0,0 l/m 0 min 0 min 0 W/m 9,7 km/h (2 Bft) 93,62 %
17.02.2023 05:26 10,8 C 10,0 C 6,7 C 90 % 1019,5 hPa 0,0 l/m 0 min 0 min 0 W/m 16,1 km/h (3 Bft) 95,74 %
17.02.2023 05:28 10,8 C 10,0 C 6,7 C 90 % 1019,5 hPa 0,0 l/m 0 min 0 min 0 W/m 12,9 km/h (3 Bft) 95,74 %
17.02.2023 05:30 10,7 C 10,0 C 6,7 C 91 % 1019,6 hPa 0,0 l/m 0 min 0 min 0 W/m 16,1 km/h (3 Bft) 93,48 %
17.02.2023 05:36 10,7 C 10,0 C 6,7 C 91 % 1019,5 hPa 0,0 l/m 0 min 0 min 0 W/m 16,1 km/h (3 Bft) 94,44 %
17.02.2023 05:38 10,7 C 10,0 C 6,7 C 91 % 1019,6 hPa 0,0 l/m 0 min 0 min 0 W/m 12,9 km/h (3 Bft) 97,87 %
17.02.2023 05:40 10,7 C 10,0 C 6,7 C 91 % 1019,5 hPa 0,0 l/m 0 min 0 min 0 W/m 16,1 km/h (3 Bft) 95,74 %
17.02.2023 05:42 10,7 C 10,0 C 6,7 C 91 % 1019,6 hPa 0,0 l/m 0 min 0 min 0 W/m 25,7 km/h (4 Bft) 93,62 %
17.02.2023 05:44 10,7 C 10,0 C 6,7 C 91 % 1019,6 hPa 0,0 l/m 0 min 0 min 0 W/m 22,5 km/h (4 Bft) 93,62 %
17.02.2023 05:46 10,7 C 10,0 C 6,7 C 91 % 1019,7 hPa 0,0 l/m 0 min 0 min 0 W/m 16,1 km/h (3 Bft) 95,74 %
17.02.2023 05:48 10,8 C 10,0 C 6,7 C 91 % 1019,5 hPa 0,0 l/m 0 min 0 min 0 W/m 16,1 km/h (3 Bft) 93,62 %
17.02.2023 05:50 10,7 C 10,0 C 6,7 C 91 % 1019,5 hPa 0,0 l/m 0 min 0 min 0 W/m 12,9 km/h (3 Bft) 93,48 %
17.02.2023 05:52 10,7 C 10,0 C 6,7 C 91 % 1019,6 hPa 0,0 l/m 0 min 0 min 0 W/m 16,1 km/h (3 Bft) 91,49 %
17.02.2023 05:54 10,7 C 10,0 C 6,7 C 91 % 1019,6 hPa 0,0 l/m 0 min 0 min 0 W/m 16,1 km/h (3 Bft) 91,49 %
17.02.2023 05:56 10,7 C 10,0 C 6,7 C 91 % 1019,7 hPa 0,0 l/m 0 min 0 min 0 W/m 16,1 km/h (3 Bft) 95,74 %
17.02.2023 05:58 10,7 C 10,0 C 6,7 C 91 % 1019,9 hPa 0,0 l/m 0 min 0 min 0 W/m 25,7 km/h (4 Bft) 93,62 %
17.02.2023 06:00 10,7 C 10,0 C 6,7 C 91 % 1019,8 hPa 0,0 l/m 0 min 0 min 0 W/m 19,3 km/h (3 Bft) 94,29 %
17.02.2023 06:02 10,7 C 10,0 C 6,7 C 91 % 1019,7 hPa 0,0 l/m 0 min 0 min 0 W/m 16,1 km/h (3 Bft) 89,36 %
17.02.2023 06:04 10,8 C 10,0 C 6,7 C 91 % 1019,7 hPa 0,0 l/m 0 min 0 min 0 W/m 19,3 km/h (3 Bft) 95,74 %
17.02.2023 06:07 10,8 C 10,0 C 6,7 C 91 % 1019,7 hPa 0,0 l/m 0 min 0 min 0 W/m 22,5 km/h (4 Bft) 95,71 %
17.02.2023 06:08 10,8 C 10,0 C 6,7 C 91 % 1019,7 hPa 0,0 l/m 0 min 0 min 0 W/m 12,9 km/h (3 Bft) 100,00 %
17.02.2023 06:12 10,8 C 10,0 C 6,7 C 91 % 1019,6 hPa 0,0 l/m 0 min 0 min 0 W/m 16,1 km/h (3 Bft) 96,15 %
17.02.2023 06:14 10,8 C 10,0 C 6,7 C 91 % 1019,6 hPa 0,0 l/m 0 min 0 min 0 W/m 12,9 km/h (3 Bft) 93,62 %
17.02.2023 06:16 10,8 C 10,0 C 6,7 C 91 % 1019,5 hPa 0,0 l/m 0 min 0 min 0 W/m 25,7 km/h (4 Bft) 95,74 %
17.02.2023 06:18 10,8 C 10,0 C 6,7 C 90 % 1019,4 hPa 0,0 l/m 0 min 0 min 0 W/m 19,3 km/h (3 Bft) 100,00 %
17.02.2023 06:20 10,8 C 10,0 C 6,7 C 90 % 1019,5 hPa 0,0 l/m 0 min 0 min 0 W/m 12,9 km/h (3 Bft) 97,87 %
17.02.2023 06:22 10,8 C 10,0 C 6,7 C 90 % 1019,4 hPa 0,0 l/m 0 min 0 min 0 W/m 16,1 km/h (3 Bft) 100,00 %
17.02.2023 06:24 10,8 C 10,0 C 6,7 C 90 % 1019,5 hPa 0,0 l/m 0 min 0 min 0 W/m 29,0 km/h (5 Bft) 100,00 %
17.02.2023 06:26 10,8 C 10,0 C 6,7 C 90 % 1019,4 hPa 0,0 l/m 0 min 0 min 0 W/m 32,2 km/h (5 Bft) 97,87 %
17.02.2023 06:28 10,8 C 10,0 C 6,7 C 90 % 1019,4 hPa 0,0 l/m 0 min 0 min 0 W/m 22,5 km/h (4 Bft) 95,74 %
17.02.2023 06:30 10,8 C 10,0 C 6,7 C 90 % 1019,4 hPa 0,0 l/m 0 min 0 min 0 W/m 6,4 km/h (2 Bft) 97,87 %
17.02.2023 06:32 10,8 C 10,0 C 6,7 C 90 % 1019,3 hPa 0,0 l/m 0 min 0 min 0 W/m 12,9 km/h (3 Bft) 97,83 %
17.02.2023 06:34 10,8 C 10,0 C 6,7 C 90 % 1019,4 hPa 0,0 l/m 0 min 0 min 0 W/m 16,1 km/h (3 Bft) 100,00 %
17.02.2023 06:36 10,8 C 10,0 C 6,7 C 90 % 1019,4 hPa 0,0 l/m 0 min 0 min 0 W/m 16,1 km/h (3 Bft) 100,00 %
17.02.2023 06:38 10,8 C 10,0 C 6,7 C 90 % 1019,2 hPa 0,0 l/m 0 min 0 min 0 W/m 16,1 km/h (3 Bft) 97,87 %
17.02.2023 06:40 10,8 C 10,0 C 6,7 C 90 % 1019,2 hPa 0,0 l/m 0 min 0 min 0 W/m 12,9 km/h (3 Bft) 100,00 %
17.02.2023 06:42 10,8 C 10,0 C 6,7 C 90 % 1019,2 hPa 0,0 l/m 0 min 0 min 0 W/m 12,9 km/h (3 Bft) 98,11 %
17.02.2023 06:44 10,8 C 10,0 C 6,7 C 90 % 1019,3 hPa 0,0 l/m 0 min 0 min 0 W/m 9,7 km/h (2 Bft) 100,00 %
17.02.2023 06:46 10,8 C 10,0 C 6,7 C 90 % 1019,3 hPa 0,0 l/m 0 min 0 min 0 W/m 6,4 km/h (2 Bft) 100,00 %
17.02.2023 06:48 10,8 C 10,0 C 6,7 C 90 % 1019,3 hPa 0,0 l/m 0 min 0 min 0 W/m 25,7 km/h (4 Bft) 97,83 %
17.02.2023 06:50 10,8 C 10,0 C 6,7 C 91 % 1019,3 hPa 0,0 l/m 0 min 0 min 0 W/m 25,7 km/h (4 Bft) 100,00 %
17.02.2023 06:52 10,8 C 10,0 C 6,7 C 91 % 1019,4 hPa 0,0 l/m 0 min 0 min 0 W/m 12,9 km/h (3 Bft) 98,00 %
17.02.2023 06:54 10,8 C 10,0 C 6,7 C 91 % 1019,4 hPa 0,0 l/m 0 min 0 min 0 W/m 25,7 km/h (4 Bft) 91,49 %
17.02.2023 06:56 10,8 C 10,0 C 6,7 C 91 % 1019,5 hPa 0,0 l/m 0 min 0 min 0 W/m 16,1 km/h (3 Bft) 97,87 %
17.02.2023 06:58 10,8 C 10,0 C 6,7 C 91 % 1019,5 hPa 0,0 l/m 0 min 0 min 0 W/m 19,3 km/h (3 Bft) 93,62 %
17.02.2023 07:00 10,8 C 10,0 C 6,7 C 91 % 1019,5 hPa 0,0 l/m 0 min 0 min 0 W/m 16,1 km/h (3 Bft) 95,65 %
17.02.2023 07:02 10,9 C 10,0 C 6,7 C 91 % 1019,5 hPa 0,0 l/m 0 min 0 min 0 W/m 22,5 km/h (4 Bft) 97,37 %
17.02.2023 07:04 10,9 C 10,0 C 6,7 C 91 % 1019,4 hPa 0,0 l/m 0 min 0 min 0 W/m 25,7 km/h (4 Bft) 98,11 %
17.02.2023 07:06 10,9 C 10,0 C 6,7 C 91 % 1019,3 hPa 0,0 l/m 0 min 0 min 0 W/m 25,7 km/h (4 Bft) 97,87 %
17.02.2023 07:08 10,9 C 10,0 C 6,7 C 91 % 1019,2 hPa 0,0 l/m 0 min 0 min 0 W/m 19,3 km/h (3 Bft) 97,87 %
17.02.2023 07:10 10,9 C 10,0 C 6,7 C 91 % 1019,3 hPa 0,0 l/m 0 min 0 min 0 W/m 22,5 km/h (4 Bft) 97,87 %
17.02.2023 07:12 10,9 C 10,0 C 6,7 C 91 % 1019,3 hPa 0,0 l/m 0 min 0 min 0 W/m 19,3 km/h (3 Bft) 95,74 %
17.02.2023 07:14 10,9 C 10,0 C 6,7 C 91 % 1019,3 hPa 0,0 l/m 0 min 0 min 0 W/m 22,5 km/h (4 Bft) 97,83 %
17.02.2023 07:16 10,9 C 10,0 C 6,7 C 91 % 1019,3 hPa 0,0 l/m 0 min 0 min 0 W/m 19,3 km/h (3 Bft) 97,87 %
17.02.2023 07:18 10,9 C 10,0 C 6,7 C 91 % 1019,3 hPa 0,0 l/m 0 min 0 min 0 W/m 19,3 km/h (3 Bft) 97,87 %
17.02.2023 07:20 10,9 C 10,0 C 6,7 C 91 % 1019,3 hPa 0,0 l/m 0 min 0 min 0 W/m 25,7 km/h (4 Bft) 97,87 %
17.02.2023 07:22 10,9 C 10,0 C 6,7 C 91 % 1019,2 hPa 0,0 l/m 0 min 0 min 0 W/m 16,1 km/h (3 Bft) 97,87 %
17.02.2023 07:24 10,9 C 10,0 C 6,7 C 91 % 1019,2 hPa 0,0 l/m 0 min 0 min 0 W/m 22,5 km/h (4 Bft) 97,87 %
17.02.2023 07:26 10,9 C 10,0 C 6,7 C 91 % 1019,3 hPa 0,0 l/m 0 min 0 min 0 W/m 22,5 km/h (4 Bft) 97,83 %
17.02.2023 07:28 10,9 C 10,0 C 6,7 C 91 % 1019,3 hPa 0,0 l/m 0 min 0 min 0 W/m 25,7 km/h (4 Bft) 97,87 %
17.02.2023 07:30 10,9 C 10,0 C 6,7 C 91 % 1019,3 hPa 0,0 l/m 0 min 0 min 0 W/m 25,7 km/h (4 Bft) 97,87 %
17.02.2023 07:32 10,9 C 10,0 C 6,7 C 91 % 1019,4 hPa 0,0 l/m 0 min 0 min 0 W/m 19,3 km/h (3 Bft) 100,00 %
17.02.2023 07:34 11,0 C 10,0 C 6,7 C 91 % 1019,4 hPa 0,0 l/m 0 min 0 min 0 W/m 22,5 km/h (4 Bft) 100,00 %
17.02.2023 07:36 10,9 C 10,0 C 6,7 C 91 % 1019,3 hPa 0,0 l/m 0 min 0 min 0 W/m 16,1 km/h (3 Bft) 100,00 %
17.02.2023 07:38 10,9 C 10,0 C 6,7 C 91 % 1019,4 hPa 0,0 l/m 0 min 0 min 0 W/m 22,5 km/h (4 Bft) 93,48 %
17.02.2023 07:40 10,9 C 10,0 C 6,7 C 91 % 1019,4 hPa 0,0 l/m 0 min 0 min 0 W/m 19,3 km/h (3 Bft) 82,98 %
17.02.2023 07:42 10,9 C 10,0 C 6,7 C 91 % 1019,5 hPa 0,0 l/m 0 min 2 min 0 W/m 19,3 km/h (3 Bft) 89,36 %
17.02.2023 07:44 10,9 C 10,0 C 6,7 C 91 % 1019,4 hPa 0,0 l/m 0 min 2 min 0 W/m 19,3 km/h (3 Bft) 87,23 %
17.02.2023 07:46 10,9 C 10,0 C 6,7 C 91 % 1019,4 hPa 0,0 l/m 0 min 2 min 0 W/m 22,5 km/h (4 Bft) 80,85 %
17.02.2023 07:48 10,9 C 10,0 C 6,7 C 91 % 1019,4 hPa 0,0 l/m 0 min 2 min 0 W/m 19,3 km/h (3 Bft) 82,98 %
17.02.2023 07:50 10,9 C 10,0 C 6,7 C 91 % 1019,5 hPa 0,0 l/m 0 min 2 min 0 W/m 32,2 km/h (5 Bft) 100,00 %
17.02.2023 07:52 10,9 C 10,0 C 6,7 C 91 % 1019,3 hPa 0,0 l/m 0 min 2 min 0 W/m 32,2 km/h (5 Bft) 95,65 %
17.02.2023 07:54 10,9 C 10,0 C 6,7 C 92 % 1019,2 hPa 0,0 l/m 0 min 2 min 0 W/m 19,3 km/h (3 Bft) 89,36 %
17.02.2023 07:56 10,9 C 10,0 C 6,7 C 92 % 1019,3 hPa 0,0 l/m 0 min 2 min 0 W/m 19,3 km/h (3 Bft) 91,49 %
17.02.2023 07:58 10,9 C 10,0 C 6,7 C 92 % 1019,4 hPa 0,0 l/m 0 min 2 min 0 W/m 16,1 km/h (3 Bft) 91,49 %
17.02.2023 08:00 10,9 C 10,0 C 6,7 C 92 % 1019,2 hPa 0,0 l/m 0 min 0 min 0 W/m 16,1 km/h (3 Bft) 97,87 %
17.02.2023 08:02 10,9 C 10,0 C 6,7 C 92 % 1019,2 hPa 0,0 l/m 0 min 0 min 0 W/m 19,3 km/h (3 Bft) 93,62 %
17.02.2023 08:04 10,9 C 10,0 C 6,7 C 92 % 1019,4 hPa 0,0 l/m 0 min 0 min 0 W/m 19,3 km/h (3 Bft) 95,65 %
17.02.2023 08:06 10,9 C 10,0 C 6,7 C 92 % 1019,3 hPa 0,0 l/m 0 min 0 min 0 W/m 19,3 km/h (3 Bft) 95,74 %
17.02.2023 08:08 10,9 C 10,0 C 6,7 C 92 % 1019,4 hPa 0,0 l/m 0 min 0 min 4 W/m 16,1 km/h (3 Bft) 93,62 %
17.02.2023 08:10 10,9 C 10,0 C 6,7 C 92 % 1019,2 hPa 0,0 l/m 0 min 0 min 5 W/m 12,9 km/h (3 Bft) 93,62 %
17.02.2023 08:12 10,9 C 10,0 C 6,7 C 92 % 1019,3 hPa 0,0 l/m 0 min 0 min 5 W/m 25,7 km/h (4 Bft) 93,62 %
17.02.2023 08:14 10,9 C 10,0 C 6,7 C 92 % 1019,3 hPa 0,0 l/m 0 min 0 min 6 W/m 16,1 km/h (3 Bft) 82,98 %
17.02.2023 08:16 10,9 C 10,0 C 6,7 C 92 % 1019,2 hPa 0,0 l/m 0 min 0 min 5 W/m 19,3 km/h (3 Bft) 82,98 %
17.02.2023 08:18 10,8 C 10,0 C 6,7 C 92 % 1019,3 hPa 0,0 l/m 0 min 0 min 7 W/m 19,3 km/h (3 Bft) 91,30 %
17.02.2023 08:20 10,9 C 10,0 C 6,7 C 92 % 1019,3 hPa 0,0 l/m 0 min 0 min 7 W/m 16,1 km/h (3 Bft) 93,62 %
17.02.2023 08:22 10,8 C 10,0 C 6,7 C 92 % 1019,4 hPa 0,0 l/m 0 min 0 min 7 W/m 29,0 km/h (5 Bft) 93,62 %
17.02.2023 08:24 10,9 C 10,0 C 6,7 C 92 % 1019,3 hPa 0,0 l/m 0 min 0 min 8 W/m 22,5 km/h (4 Bft) 91,49 %
17.02.2023 08:26 10,8 C 10,0 C 6,7 C 92 % 1019,3 hPa 0,0 l/m 0 min 0 min 9 W/m 16,1 km/h (3 Bft) 95,74 %
17.02.2023 08:28 10,9 C 10,0 C 6,7 C 92 % 1019,4 hPa 0,0 l/m 0 min 0 min 9 W/m 32,2 km/h (5 Bft) 91,49 %
17.02.2023 08:30 10,9 C 10,0 C 6,7 C 92 % 1019,4 hPa 0,0 l/m 0 min 0 min 9 W/m 25,7 km/h (4 Bft) 86,96 %
17.02.2023 08:32 10,9 C 10,0 C 6,7 C 92 % 1019,4 hPa 0,0 l/m 0 min 0 min 10 W/m 16,1 km/h (3 Bft) 89,36 %
17.02.2023 08:34 10,9 C 10,0 C 6,7 C 92 % 1019,3 hPa 0,0 l/m 0 min 0 min 11 W/m 25,7 km/h (4 Bft) 93,62 %
17.02.2023 08:36 10,9 C 10,0 C 6,7 C 92 % 1019,4 hPa 0,0 l/m 0 min 0 min 12 W/m 25,7 km/h (4 Bft) 93,62 %
17.02.2023 08:38 10,9 C 10,0 C 6,7 C 92 % 1019,3 hPa 0,0 l/m 0 min 0 min 12 W/m 41,8 km/h (6 Bft) 95,74 %
17.02.2023 08:40 10,9 C 10,6 C 6,7 C 92 % 1019,3 hPa 0,0 l/m 0 min 0 min 14 W/m 16,1 km/h (3 Bft) 95,74 %
17.02.2023 08:42 10,9 C 10,6 C 6,7 C 92 % 1019,3 hPa 0,0 l/m 0 min 0 min 17 W/m 19,3 km/h (3 Bft) 87,23 %
17.02.2023 08:44 10,9 C 10,6 C 6,7 C 92 % 1019,4 hPa 0,0 l/m 0 min 0 min 14 W/m 16,1 km/h (3 Bft) 89,13 %
17.02.2023 08:46 10,9 C 10,6 C 6,7 C 92 % 1019,4 hPa 0,0 l/m 0 min 0 min 14 W/m 22,5 km/h (4 Bft) 93,62 %
17.02.2023 08:48 10,9 C 10,6 C 6,7 C 92 % 1019,4 hPa 0,0 l/m 0 min 0 min 14 W/m 19,3 km/h (3 Bft) 97,87 %
17.02.2023 08:50 10,9 C 10,6 C 7,2 C 92 % 1019,4 hPa 0,0 l/m 0 min 0 min 13 W/m 19,3 km/h (3 Bft) 95,74 %
17.02.2023 08:52 11,0 C 10,6 C 6,7 C 92 % 1019,5 hPa 0,0 l/m 0 min 0 min 13 W/m 12,9 km/h (3 Bft) 97,87 %
17.02.2023 08:54 11,0 C 10,6 C 6,7 C 92 % 1019,4 hPa 0,0 l/m 0 min 0 min 15 W/m 19,3 km/h (3 Bft) 93,62 %
17.02.2023 08:56 11,0 C 10,6 C 7,2 C 92 % 1019,5 hPa 0,0 l/m 0 min 0 min 15 W/m 22,5 km/h (4 Bft) 97,83 %
17.02.2023 08:58 11,0 C 10,6 C 7,2 C 92 % 1019,5 hPa 0,0 l/m 0 min 0 min 16 W/m 16,1 km/h (3 Bft) 97,87 %
17.02.2023 09:00 11,0 C 10,6 C 7,2 C 92 % 1019,4 hPa 0,0 l/m 0 min 0 min 19 W/m 12,9 km/h (3 Bft) 95,74 %
17.02.2023 09:02 11,0 C 10,6 C 7,2 C 92 % 1019,4 hPa 0,0 l/m 0 min 0 min 21 W/m 22,5 km/h (4 Bft) 97,87 %
17.02.2023 09:04 11,0 C 10,6 C 7,2 C 92 % 1019,4 hPa 0,0 l/m 0 min 0 min 25 W/m 22,5 km/h (4 Bft) 97,87 %
17.02.2023 09:06 11,1 C 10,6 C 7,2 C 92 % 1019,3 hPa 0,0 l/m 0 min 0 min 28 W/m 16,1 km/h (3 Bft) 91,67 %
17.02.2023 09:08 11,1 C 10,6 C 7,2 C 92 % 1019,3 hPa 0,0 l/m 0 min 0 min 32 W/m 19,3 km/h (3 Bft) 97,83 %
17.02.2023 09:10 11,1 C 10,6 C 7,2 C 92 % 1019,3 hPa 0,0 l/m 0 min 0 min 34 W/m 22,5 km/h (4 Bft) 97,87 %
17.02.2023 09:12 11,1 C 10,6 C 7,2 C 92 % 1019,3 hPa 0,0 l/m 0 min 0 min 32 W/m 38,6 km/h (5 Bft) 97,87 %
17.02.2023 09:14 11,1 C 10,6 C 7,2 C 92 % 1019,4 hPa 0,0 l/m 0 min 0 min 36 W/m 32,2 km/h (5 Bft) 97,87 %
17.02.2023 09:16 11,1 C 10,6 C 7,2 C 92 % 1019,4 hPa 0,0 l/m 0 min 0 min 50 W/m 38,6 km/h (5 Bft) 97,87 %
17.02.2023 09:18 11,1 C 10,6 C 7,2 C 92 % 1019,3 hPa 0,0 l/m 0 min 0 min 53 W/m 22,5 km/h (4 Bft) 95,74 %
17.02.2023 09:20 11,2 C 10,6 C 7,2 C 92 % 1019,3 hPa 0,0 l/m 0 min 0 min 48 W/m 19,3 km/h (3 Bft) 97,87 %
17.02.2023 09:22 11,2 C 10,6 C 7,2 C 92 % 1019,3 hPa 0,0 l/m 0 min 0 min 43 W/m 29,0 km/h (5 Bft) 97,83 %
17.02.2023 09:24 11,2 C 10,6 C 7,2 C 92 % 1019,3 hPa 0,0 l/m 0 min 0 min 53 W/m 25,7 km/h (4 Bft) 97,87 %
17.02.2023 09:26 11,2 C 10,6 C 7,2 C 92 % 1019,3 hPa 0,0 l/m 0 min 0 min 58 W/m 32,2 km/h (5 Bft) 97,87 %
17.02.2023 09:28 11,3 C 11,1 C 7,2 C 91 % 1019,3 hPa 0,0 l/m 0 min 0 min 66 W/m 19,3 km/h (3 Bft) 97,87 %
17.02.2023 09:30 11,3 C 11,1 C 7,2 C 91 % 1019,3 hPa 0,0 l/m 0 min 0 min 68 W/m 32,2 km/h (5 Bft) 97,87 %
17.02.2023 09:32 11,3 C 11,1 C 7,2 C 91 % 1019,3 hPa 0,0 l/m 0 min 0 min 71 W/m 22,5 km/h (4 Bft) 100,00 %
17.02.2023 09:34 11,3 C 11,1 C 7,2 C 91 % 1019,2 hPa 0,0 l/m 0 min 0 min 68 W/m 16,1 km/h (3 Bft) 100,00 %
17.02.2023 09:36 11,3 C 11,1 C 7,2 C 91 % 1019,3 hPa 0,0 l/m 0 min 0 min 56 W/m 16,1 km/h (3 Bft) 100,00 %
17.02.2023 09:38 11,4 C 11,1 C 7,2 C 91 % 1019,4 hPa 0,0 l/m 0 min 0 min 62 W/m 19,3 km/h (3 Bft) 100,00 %
17.02.2023 09:40 11,4 C 11,1 C 7,2 C 91 % 1019,4 hPa 0,0 l/m 0 min 0 min 79 W/m 32,2 km/h (5 Bft) 97,87 %
17.02.2023 09:42 11,4 C 11,1 C 7,8 C 91 % 1019,4 hPa 0,0 l/m 0 min 0 min 91 W/m 19,3 km/h (3 Bft) 100,00 %
17.02.2023 09:44 11,4 C 11,1 C 7,8 C 91 % 1019,4 hPa 0,0 l/m 0 min 0 min 81 W/m 19,3 km/h (3 Bft) 97,87 %
17.02.2023 09:46 11,5 C 11,1 C 7,8 C 91 % 1019,3 hPa 0,0 l/m 0 min 0 min 71 W/m 19,3 km/h (3 Bft) 100,00 %
17.02.2023 09:48 11,5 C 11,1 C 7,8 C 91 % 1019,3 hPa 0,0 l/m 0 min 0 min 95 W/m 19,3 km/h (3 Bft) 97,87 %
17.02.2023 09:50 11,6 C 11,1 C 7,8 C 91 % 1019,2 hPa 0,0 l/m 0 min 0 min 113 W/m 29,0 km/h (5 Bft) 97,87 %
17.02.2023 09:52 11,6 C 11,7 C 7,8 C 91 % 1019,3 hPa 0,0 l/m 0 min 0 min 117 W/m 32,2 km/h (5 Bft) 100,00 %
17.02.2023 09:54 11,6 C 11,7 C 7,8 C 91 % 1019,3 hPa 0,0 l/m 0 min 0 min 113 W/m 29,0 km/h (5 Bft) 97,87 %
17.02.2023 09:56 11,6 C 11,7 C 7,8 C 91 % 1019,3 hPa 0,0 l/m 0 min 0 min 102 W/m 19,3 km/h (3 Bft) 100,00 %
17.02.2023 09:58 11,7 C 11,7 C 7,8 C 91 % 1019,4 hPa 0,0 l/m 0 min 0 min 91 W/m 22,5 km/h (4 Bft) 100,00 %
17.02.2023 10:00 11,7 C 11,7 C 7,8 C 90 % 1019,3 hPa 0,0 l/m 0 min 0 min 92 W/m 25,7 km/h (4 Bft) 97,83 %
17.02.2023 10:02 11,7 C 11,7 C 7,8 C 90 % 1019,3 hPa 0,0 l/m 0 min 0 min 99 W/m 22,5 km/h (4 Bft) 97,87 %
17.02.2023 10:04 11,7 C 11,7 C 7,8 C 90 % 1019,3 hPa 0,0 l/m 0 min 0 min 98 W/m 19,3 km/h (3 Bft) 97,87 %
17.02.2023 10:06 11,7 C 11,7 C 7,8 C 90 % 1019,3 hPa 0,0 l/m 0 min 0 min 104 W/m 25,7 km/h (4 Bft) 100,00 %
17.02.2023 10:08 11,7 C 11,7 C 7,8 C 90 % 1019,4 hPa 0,0 l/m 0 min 0 min 106 W/m 16,1 km/h (3 Bft) 100,00 %
17.02.2023 10:10 11,8 C 11,7 C 7,8 C 90 % 1019,4 hPa 0,0 l/m 0 min 0 min 107 W/m 16,1 km/h (3 Bft) 97,87 %
17.02.2023 10:12 11,8 C 11,7 C 7,8 C 90 % 1019,4 hPa 0,0 l/m 0 min 0 min 112 W/m 29,0 km/h (5 Bft) 97,83 %
17.02.2023 10:14 11,8 C 11,7 C 7,8 C 90 % 1019,3 hPa 0,0 l/m 0 min 0 min 115 W/m 32,2 km/h (5 Bft) 100,00 %
17.02.2023 10:16 11,8 C 11,7 C 7,8 C 90 % 1019,4 hPa 0,0 l/m 0 min 0 min 117 W/m 22,5 km/h (4 Bft) 100,00 %
17.02.2023 10:18 11,8 C 11,7 C 7,8 C 90 % 1019,3 hPa 0,0 l/m 0 min 0 min 116 W/m 22,5 km/h (4 Bft) 97,87 %
17.02.2023 10:20 11,9 C 11,7 C 7,8 C 90 % 1019,3 hPa 0,0 l/m 0 min 0 min 124 W/m 29,0 km/h (5 Bft) 100,00 %
17.02.2023 10:22 11,9 C 11,7 C 7,8 C 90 % 1019,3 hPa 0,0 l/m 0 min 0 min 130 W/m 29,0 km/h (5 Bft) 97,87 %
17.02.2023 10:24 11,9 C 11,7 C 7,8 C 90 % 1019,4 hPa 0,0 l/m 0 min 0 min 83 W/m 22,5 km/h (4 Bft) 100,00 %
17.02.2023 10:26 11,9 C 11,7 C 7,8 C 90 % 1019,4 hPa 0,0 l/m 0 min 0 min 96 W/m 19,3 km/h (3 Bft) 100,00 %
17.02.2023 10:28 12,0 C 11,7 C 7,8 C 90 % 1019,4 hPa 0,0 l/m 0 min 0 min 131 W/m 25,7 km/h (4 Bft) 100,00 %
17.02.2023 10:30 12,0 C 11,7 C 8,3 C 90 % 1019,4 hPa 0,0 l/m 0 min 0 min 137 W/m 29,0 km/h (5 Bft) 100,00 %
17.02.2023 10:32 12,0 C 11,7 C 8,3 C 90 % 1019,4 hPa 0,0 l/m 0 min 0 min 127 W/m 19,3 km/h (3 Bft) 100,00 %
17.02.2023 10:34 12,1 C 12,2 C 8,3 C 90 % 1019,4 hPa 0,0 l/m 0 min 0 min 122 W/m 19,3 km/h (3 Bft) 97,87 %
17.02.2023 10:36 12,1 C 12,2 C 8,3 C 90 % 1019,4 hPa 0,0 l/m 0 min 0 min 113 W/m 19,3 km/h (3 Bft) 95,65 %
17.02.2023 10:38 12,1 C 12,2 C 8,3 C 90 % 1019,5 hPa 0,0 l/m 0 min 0 min 132 W/m 22,5 km/h (4 Bft) 100,00 %
17.02.2023 10:40 12,1 C 12,2 C 8,3 C 89 % 1019,4 hPa 0,0 l/m 0 min 0 min 133 W/m 29,0 km/h (5 Bft) 100,00 %
17.02.2023 10:42 12,2 C 12,2 C 8,3 C 89 % 1019,4 hPa 0,0 l/m 0 min 0 min 127 W/m 19,3 km/h (3 Bft) 95,74 %
17.02.2023 10:44 12,2 C 12,2 C 8,3 C 89 % 1019,4 hPa 0,0 l/m 0 min 0 min 146 W/m 25,7 km/h (4 Bft) 95,74 %
17.02.2023 10:46 12,2 C 12,2 C 8,3 C 89 % 1019,5 hPa 0,0 l/m 0 min 0 min 160 W/m 22,5 km/h (4 Bft) 93,62 %
17.02.2023 10:48 12,3 C 12,2 C 8,3 C 89 % 1019,5 hPa 0,0 l/m 0 min 0 min 155 W/m 35,4 km/h (5 Bft) 95,74 %
17.02.2023 10:50 12,3 C 12,2 C 8,3 C 89 % 1019,4 hPa 0,0 l/m 0 min 0 min 145 W/m 22,5 km/h (4 Bft) 95,65 %
17.02.2023 10:52 12,3 C 12,2 C 8,3 C 89 % 1019,4 hPa 0,0 l/m 0 min 0 min 141 W/m 12,9 km/h (3 Bft) 23,08 %
17.02.2023 10:54 12,3 C 12,2 C 8,3 C 89 % 1019,4 hPa 0,0 l/m 0 min 0 min 138 W/m 16,1 km/h (3 Bft) 95,74 %
17.02.2023 10:56 12,4 C 12,2 C 8,3 C 89 % 1019,6 hPa 0,0 l/m 0 min 0 min 138 W/m 25,7 km/h (4 Bft) 91,49 %
17.02.2023 10:58 12,4 C 12,2 C 8,3 C 89 % 1019,5 hPa 0,0 l/m 0 min 0 min 155 W/m 25,7 km/h (4 Bft) 89,36 %
17.02.2023 11:00 12,4 C 12,2 C 8,9 C 89 % 1019,6 hPa 0,0 l/m 0 min 0 min 121 W/m 35,4 km/h (5 Bft) 91,49 %
17.02.2023 11:02 12,4 C 12,2 C 8,3 C 89 % 1019,6 hPa 0,0 l/m 0 min 0 min 98 W/m 25,7 km/h (4 Bft) 93,48 %
17.02.2023 11:04 12,4 C 12,2 C 8,3 C 89 % 1019,6 hPa 0,0 l/m 0 min 0 min 89 W/m 16,1 km/h (3 Bft) 89,36 %
17.02.2023 11:06 12,5 C 12,2 C 8,3 C 88 % 1019,6 hPa 0,0 l/m 0 min 0 min 90 W/m 25,7 km/h (4 Bft) 93,62 %
17.02.2023 11:08 12,5 C 12,2 C 8,3 C 88 % 1019,6 hPa 0,0 l/m 0 min 0 min 119 W/m 19,3 km/h (3 Bft) 93,62 %
17.02.2023 11:10 12,5 C 12,8 C 8,9 C 89 % 1019,6 hPa 0,0 l/m 0 min 0 min 166 W/m 32,2 km/h (5 Bft) 93,62 %
17.02.2023 11:12 12,6 C 12,8 C 8,9 C 89 % 1019,7 hPa 0,0 l/m 0 min 0 min 160 W/m 22,5 km/h (4 Bft) 95,74 %
17.02.2023 11:14 12,6 C 12,8 C 8,9 C 89 % 1019,7 hPa 0,0 l/m 0 min 0 min 146 W/m 19,3 km/h (3 Bft) 93,62 %
17.02.2023 11:16 12,6 C 12,8 C 8,9 C 89 % 1019,7 hPa 0,0 l/m 0 min 0 min 167 W/m 41,8 km/h (6 Bft) 95,65 %
17.02.2023 11:18 12,7 C 13,3 C 8,9 C 88 % 1019,7 hPa 0,0 l/m 0 min 0 min 185 W/m 35,4 km/h (5 Bft) 91,49 %
17.02.2023 11:20 12,7 C 12,8 C 8,9 C 88 % 1019,7 hPa 0,0 l/m 0 min 0 min 155 W/m 22,5 km/h (4 Bft) 91,49 %
17.02.2023 11:22 12,7 C 12,8 C 8,9 C 88 % 1019,7 hPa 0,0 l/m 0 min 0 min 193 W/m 35,4 km/h (5 Bft) 93,62 %
17.02.2023 11:24 12,7 C 13,3 C 9,4 C 88 % 1019,6 hPa 0,0 l/m 2 min 0 min 235 W/m 29,0 km/h (5 Bft) 93,62 %
17.02.2023 11:26 12,8 C 12,8 C 9,4 C 88 % 1019,7 hPa 0,0 l/m 0 min 0 min 186 W/m 25,7 km/h (4 Bft) 93,62 %
17.02.2023 11:28 12,8 C 12,8 C 9,4 C 88 % 1019,6 hPa 0,0 l/m 0 min 0 min 191 W/m 29,0 km/h (5 Bft) 93,48 %
17.02.2023 11:30 12,8 C 12,8 C 9,4 C 88 % 1019,7 hPa 0,0 l/m 0 min 0 min 170 W/m 38,6 km/h (5 Bft) 95,74 %
17.02.2023 11:32 12,9 C 12,8 C 9,4 C 88 % 1019,7 hPa 0,0 l/m 0 min 0 min 130 W/m 22,5 km/h (4 Bft) 97,87 %
17.02.2023 11:34 12,9 C 12,8 C 8,9 C 88 % 1019,8 hPa 0,0 l/m 0 min 0 min 109 W/m 19,3 km/h (3 Bft) 97,87 %
17.02.2023 11:36 12,9 C 12,8 C 8,9 C 88 % 1019,7 hPa 0,0 l/m 0 min 0 min 111 W/m 25,7 km/h (4 Bft) 95,74 %
17.02.2023 11:38 12,9 C 12,8 C 8,9 C 88 % 1019,9 hPa 0,0 l/m 0 min 0 min 135 W/m 16,1 km/h (3 Bft) 97,87 %
17.02.2023 11:40 12,9 C 12,8 C 8,9 C 88 % 1019,9 hPa 0,0 l/m 0 min 0 min 117 W/m 22,5 km/h (4 Bft) 97,87 %
17.02.2023 11:42 12,9 C 12,8 C 8,9 C 87 % 1019,8 hPa 0,0 l/m 0 min 0 min 97 W/m 22,5 km/h (4 Bft) 100,00 %
17.02.2023 11:44 12,9 C 12,8 C 8,9 C 87 % 1019,8 hPa 0,0 l/m 0 min 0 min 115 W/m 22,5 km/h (4 Bft) 97,87 %
17.02.2023 11:46 12,9 C 12,8 C 8,9 C 87 % 1019,8 hPa 0,0 l/m 0 min 0 min 125 W/m 22,5 km/h (4 Bft) 100,00 %
17.02.2023 11:48 12,9 C 12,8 C 8,9 C 87 % 1019,8 hPa 0,0 l/m 0 min 0 min 123 W/m 25,7 km/h (4 Bft) 100,00 %
17.02.2023 11:50 12,9 C 12,8 C 8,9 C 87 % 1019,7 hPa 0,0 l/m 0 min 0 min 129 W/m 25,7 km/h (4 Bft) 100,00 %
17.02.2023 11:52 12,9 C 12,8 C 8,9 C 87 % 1019,7 hPa 0,0 l/m 0 min 0 min 132 W/m 22,5 km/h (4 Bft) 100,00 %
17.02.2023 11:54 13,0 C 12,8 C 8,9 C 87 % 1019,7 hPa 0,0 l/m 0 min 0 min 129 W/m 35,4 km/h (5 Bft) 100,00 %
17.02.2023 11:56 13,1 C 12,8 C 9,4 C 87 % 1019,8 hPa 0,0 l/m 0 min 0 min 175 W/m 29,0 km/h (5 Bft) 100,00 %
17.02.2023 11:58 13,1 C 12,8 C 9,4 C 87 % 1019,8 hPa 0,0 l/m 0 min 0 min 165 W/m 32,2 km/h (5 Bft) 100,00 %
17.02.2023 12:00 13,1 C 12,8 C 9,4 C 87 % 1019,7 hPa 0,0 l/m 0 min 0 min 171 W/m 19,3 km/h (3 Bft) 100,00 %
17.02.2023 12:02 13,2 C 13,3 C 9,4 C 87 % 1019,7 hPa 0,0 l/m 0 min 0 min 173 W/m 38,6 km/h (5 Bft) 100,00 %
17.02.2023 12:04 13,2 C 13,3 C 9,4 C 87 % 1019,7 hPa 0,0 l/m 0 min 0 min 159 W/m 29,0 km/h (5 Bft) 97,87 %
17.02.2023 12:07 13,2 C 12,8 C 9,4 C 87 % 1019,8 hPa 0,0 l/m 0 min 0 min 149 W/m 38,6 km/h (5 Bft) 100,00 %
17.02.2023 12:08 13,2 C 12,8 C 9,4 C 87 % 1019,8 hPa 0,0 l/m 0 min 0 min 157 W/m 35,4 km/h (5 Bft) 100,00 %
17.02.2023 12:12 13,3 C 13,3 C 9,4 C 87 % 1019,6 hPa 0,0 l/m 0 min 0 min 160 W/m 22,5 km/h (4 Bft) 97,92 %
17.02.2023 12:14 13,3 C 13,3 C 9,4 C 86 % 1019,6 hPa 0,0 l/m 0 min 0 min 161 W/m 38,6 km/h (5 Bft) 100,00 %
17.02.2023 12:16 13,3 C 13,3 C 9,4 C 86 % 1019,5 hPa 0,0 l/m 0 min 0 min 193 W/m 22,5 km/h (4 Bft) 100,00 %
17.02.2023 12:18 13,4 C 13,3 C 9,4 C 86 % 1019,5 hPa 0,0 l/m 0 min 0 min 178 W/m 22,5 km/h (4 Bft) 100,00 %
17.02.2023 12:20 13,4 C 13,3 C 9,4 C 86 % 1019,5 hPa 0,0 l/m 0 min 0 min 178 W/m 35,4 km/h (5 Bft) 100,00 %
17.02.2023 12:22 13,4 C 13,3 C 9,4 C 86 % 1019,5 hPa 0,0 l/m 0 min 0 min 181 W/m 22,5 km/h (4 Bft) 100,00 %
17.02.2023 12:24 13,4 C 13,3 C 9,4 C 86 % 1019,5 hPa 0,0 l/m 0 min 0 min 176 W/m 29,0 km/h (5 Bft) 97,87 %
17.02.2023 12:26 13,5 C 13,9 C 10,0 C 86 % 1019,3 hPa 0,0 l/m 0 min 0 min 203 W/m 29,0 km/h (5 Bft) 100,00 %
17.02.2023 12:28 13,5 C 13,9 C 10,0 C 86 % 1019,4 hPa 0,0 l/m 0 min 0 min 184 W/m 25,7 km/h (4 Bft) 100,00 %
17.02.2023 12:30 13,6 C 13,9 C 10,0 C 85 % 1019,2 hPa 0,0 l/m 0 min 0 min 204 W/m 25,7 km/h (4 Bft) 100,00 %
17.02.2023 12:32 13,6 C 13,9 C 10,0 C 85 % 1019,3 hPa 0,0 l/m 0 min 0 min 178 W/m 38,6 km/h (5 Bft) 100,00 %
17.02.2023 12:34 13,6 C 13,3 C 10,0 C 85 % 1019,3 hPa 0,0 l/m 0 min 0 min 152 W/m 29,0 km/h (5 Bft) 97,87 %
17.02.2023 12:36 13,6 C 13,3 C 10,0 C 85 % 1019,3 hPa 0,0 l/m 0 min 0 min 167 W/m 19,3 km/h (3 Bft) 100,00 %
17.02.2023 12:38 13,7 C 13,9 C 10,0 C 85 % 1019,4 hPa 0,0 l/m 0 min 0 min 171 W/m 22,5 km/h (4 Bft) 100,00 %
17.02.2023 12:40 13,7 C 13,9 C 10,0 C 85 % 1019,3 hPa 0,0 l/m 0 min 0 min 143 W/m 16,1 km/h (3 Bft) 100,00 %
17.02.2023 12:42 13,7 C 13,9 C 10,0 C 85 % 1019,2 hPa 0,0 l/m 0 min 0 min 157 W/m 19,3 km/h (3 Bft) 95,74 %
17.02.2023 12:44 13,7 C 13,9 C 10,0 C 85 % 1019,2 hPa 0,0 l/m 0 min 0 min 140 W/m 32,2 km/h (5 Bft) 97,83 %
17.02.2023 12:46 13,8 C 13,9 C 10,0 C 84 % 1019,4 hPa 0,0 l/m 0 min 0 min 180 W/m 35,4 km/h (5 Bft) 97,87 %
17.02.2023 12:48 13,9 C 13,9 C 10,0 C 84 % 1019,3 hPa 0,0 l/m 0 min 0 min 144 W/m 32,2 km/h (5 Bft) 100,00 %
17.02.2023 12:50 13,9 C 13,9 C 10,0 C 84 % 1019,3 hPa 0,0 l/m 0 min 0 min 104 W/m 45,1 km/h (6 Bft) 97,87 %
17.02.2023 12:52 13,9 C 13,9 C 10,0 C 83 % 1019,4 hPa 0,0 l/m 0 min 0 min 108 W/m 35,4 km/h (5 Bft) 97,87 %
17.02.2023 12:54 13,9 C 13,9 C 10,0 C 83 % 1019,4 hPa 0,0 l/m 0 min 0 min 92 W/m 25,7 km/h (4 Bft) 97,87 %
17.02.2023 12:56 13,9 C 13,3 C 10,0 C 83 % 1019,4 hPa 0,0 l/m 0 min 0 min 69 W/m 25,7 km/h (4 Bft) 97,87 %
17.02.2023 12:58 13,9 C 13,3 C 9,4 C 83 % 1019,4 hPa 0,0 l/m 0 min 0 min 61 W/m 16,1 km/h (3 Bft) 100,00 %
17.02.2023 13:00 13,9 C 13,3 C 9,4 C 83 % 1019,2 hPa 0,0 l/m 0 min 0 min 63 W/m 19,3 km/h (3 Bft) 95,74 %
17.02.2023 13:02 13,9 C 13,3 C 9,4 C 83 % 1019,2 hPa 0,0 l/m 0 min 0 min 90 W/m 25,7 km/h (4 Bft) 91,49 %
17.02.2023 13:04 13,9 C 13,9 C 10,0 C 84 % 1019,1 hPa 0,0 l/m 0 min 0 min 133 W/m 22,5 km/h (4 Bft) 97,87 %
17.02.2023 13:06 14,0 C 13,9 C 10,0 C 84 % 1019,2 hPa 0,0 l/m 0 min 0 min 162 W/m 25,7 km/h (4 Bft) 96,55 %
17.02.2023 13:08 14,1 C 14,4 C 10,0 C 84 % 1019,1 hPa 0,0 l/m 0 min 0 min 208 W/m 16,1 km/h (3 Bft) 97,22 %
17.02.2023 13:10 14,1 C 14,4 C 10,0 C 84 % 1019,1 hPa 0,0 l/m 0 min 0 min 166 W/m 38,6 km/h (5 Bft) 97,83 %
17.02.2023 13:12 14,2 C 14,4 C 10,0 C 83 % 1019,1 hPa 0,0 l/m 0 min 0 min 220 W/m 25,7 km/h (4 Bft) 97,87 %
17.02.2023 13:14 14,3 C 14,4 C 10,0 C 83 % 1019,0 hPa 0,0 l/m 0 min 0 min 206 W/m 29,0 km/h (5 Bft) 95,74 %
17.02.2023 13:16 14,3 C 15,0 C 10,6 C 83 % 1019,0 hPa 0,0 l/m 2 min 0 min 258 W/m 22,5 km/h (4 Bft) 97,87 %
17.02.2023 13:18 14,3 C 15,0 C 10,6 C 83 % 1019,0 hPa 0,0 l/m 0 min 0 min 219 W/m 22,5 km/h (4 Bft) 97,87 %
17.02.2023 13:20 14,3 C 14,4 C 10,6 C 83 % 1019,0 hPa 0,0 l/m 0 min 0 min 177 W/m 22,5 km/h (4 Bft) 97,87 %
17.02.2023 13:22 14,3 C 14,4 C 10,6 C 83 % 1018,9 hPa 0,0 l/m 0 min 0 min 164 W/m 22,5 km/h (4 Bft) 97,83 %
17.02.2023 13:24 14,3 C 14,4 C 10,6 C 83 % 1018,9 hPa 0,0 l/m 0 min 0 min 180 W/m 25,7 km/h (4 Bft) 95,74 %
17.02.2023 13:26 14,4 C 14,4 C 10,6 C 83 % 1018,9 hPa 0,0 l/m 0 min 0 min 193 W/m 32,2 km/h (5 Bft) 91,49 %
17.02.2023 13:28 14,4 C 14,4 C 10,6 C 83 % 1019,0 hPa 0,0 l/m 0 min 0 min 211 W/m 16,1 km/h (3 Bft) 95,74 %
17.02.2023 13:30 14,5 C 14,4 C 10,6 C 83 % 1018,9 hPa 0,0 l/m 0 min 0 min 214 W/m 32,2 km/h (5 Bft) 95,74 %
17.02.2023 13:32 14,6 C 15,0 C 10,6 C 83 % 1019,0 hPa 0,0 l/m 2 min 0 min 238 W/m 22,5 km/h (4 Bft) 93,62 %
17.02.2023 13:34 14,6 C 15,6 C 10,6 C 82 % 1019,1 hPa 0,0 l/m 2 min 0 min 244 W/m 35,4 km/h (5 Bft) 95,74 %
17.02.2023 13:36 14,7 C 15,0 C 10,6 C 82 % 1019,1 hPa 0,0 l/m 2 min 0 min 221 W/m 29,0 km/h (5 Bft) 93,48 %
17.02.2023 13:38 14,7 C 15,0 C 10,6 C 82 % 1019,1 hPa 0,0 l/m 2 min 0 min 254 W/m 19,3 km/h (3 Bft) 97,87 %
17.02.2023 13:40 14,8 C 15,0 C 10,6 C 82 % 1019,0 hPa 0,0 l/m 2 min 0 min 248 W/m 29,0 km/h (5 Bft) 93,62 %
17.02.2023 13:42 14,8 C 15,6 C 10,6 C 82 % 1019,0 hPa 0,0 l/m 2 min 0 min 241 W/m 22,5 km/h (4 Bft) 95,74 %
17.02.2023 13:44 14,8 C 15,6 C 11,1 C 81 % 1019,0 hPa 0,0 l/m 2 min 0 min 262 W/m 25,7 km/h (4 Bft) 95,74 %
17.02.2023 13:46 14,9 C 15,0 C 11,1 C 82 % 1019,0 hPa 0,0 l/m 0 min 0 min 213 W/m 22,5 km/h (4 Bft) 95,74 %
17.02.2023 13:48 14,9 C 15,0 C 10,6 C 81 % 1018,9 hPa 0,0 l/m 0 min 0 min 178 W/m 32,2 km/h (5 Bft) 95,65 %
17.02.2023 13:50 14,9 C 15,0 C 10,6 C 82 % 1018,8 hPa 0,0 l/m 0 min 0 min 177 W/m 22,5 km/h (4 Bft) 97,87 %
17.02.2023 13:52 14,9 C 15,0 C 10,6 C 81 % 1018,7 hPa 0,0 l/m 0 min 0 min 165 W/m 22,5 km/h (4 Bft) 97,87 %
17.02.2023 13:54 14,9 C 15,0 C 10,6 C 81 % 1018,7 hPa 0,0 l/m 0 min 0 min 154 W/m 35,4 km/h (5 Bft) 95,74 %
17.02.2023 13:56 14,8 C 14,4 C 10,6 C 81 % 1018,7 hPa 0,0 l/m 0 min 0 min 139 W/m 29,0 km/h (5 Bft) 93,62 %
17.02.2023 13:58 14,8 C 14,4 C 10,6 C 81 % 1018,7 hPa 0,0 l/m 0 min 0 min 116 W/m 29,0 km/h (5 Bft) 95,74 %
17.02.2023 14:00 14,8 C 14,4 C 10,6 C 81 % 1018,7 hPa 0,0 l/m 0 min 0 min 120 W/m 25,7 km/h (4 Bft) 93,62 %
17.02.2023 14:02 14,8 C 14,4 C 10,6 C 81 % 1018,7 hPa 0,0 l/m 0 min 0 min 114 W/m 22,5 km/h (4 Bft) 93,48 %
17.02.2023 14:04 14,8 C 14,4 C 10,6 C 81 % 1018,8 hPa 0,0 l/m 0 min 0 min 138 W/m 19,3 km/h (3 Bft) 94,00 %
17.02.2023 14:06 14,8 C 14,4 C 10,6 C 81 % 1018,8 hPa 0,0 l/m 0 min 0 min 173 W/m 25,7 km/h (4 Bft) 94,92 %
17.02.2023 14:08 14,8 C 15,0 C 10,6 C 81 % 1018,9 hPa 0,0 l/m 0 min 0 min 183 W/m 19,3 km/h (3 Bft) 97,14 %
17.02.2023 14:10 14,8 C 15,0 C 10,6 C 82 % 1018,9 hPa 0,0 l/m 2 min 0 min 207 W/m 19,3 km/h (3 Bft) 95,74 %
17.02.2023 14:12 14,8 C 15,0 C 10,6 C 81 % 1019,1 hPa 0,0 l/m 0 min 0 min 180 W/m 22,5 km/h (4 Bft) 97,87 %
17.02.2023 14:14 14,8 C 15,0 C 10,6 C 81 % 1019,0 hPa 0,0 l/m 0 min 0 min 185 W/m 19,3 km/h (3 Bft) 97,83 %
17.02.2023 14:16 14,9 C 15,0 C 10,6 C 81 % 1019,1 hPa 0,0 l/m 0 min 0 min 178 W/m 22,5 km/h (4 Bft) 97,87 %
17.02.2023 14:18 14,9 C 15,0 C 10,6 C 81 % 1019,1 hPa 0,0 l/m 0 min 0 min 132 W/m 22,5 km/h (4 Bft) 95,74 %
17.02.2023 14:20 14,9 C 15,0 C 10,6 C 81 % 1019,2 hPa 0,0 l/m 0 min 0 min 118 W/m 25,7 km/h (4 Bft) 97,87 %
17.02.2023 14:22 14,9 C 14,4 C 10,6 C 81 % 1019,3 hPa 0,0 l/m 0 min 0 min 95 W/m 19,3 km/h (3 Bft) 97,87 %
17.02.2023 14:24 14,9 C 14,4 C 10,6 C 81 % 1019,2 hPa 0,0 l/m 0 min 0 min 87 W/m 16,1 km/h (3 Bft) 95,74 %
17.02.2023 14:26 14,9 C 14,4 C 10,6 C 81 % 1019,2 hPa 0,0 l/m 0 min 0 min 76 W/m 19,3 km/h (3 Bft) 97,83 %
17.02.2023 14:28 14,9 C 14,4 C 10,6 C 81 % 1019,2 hPa 0,0 l/m 0 min 0 min 67 W/m 41,8 km/h (6 Bft) 97,87 %
17.02.2023 14:30 14,8 C 14,4 C 10,6 C 81 % 1019,3 hPa 0,0 l/m 0 min 0 min 59 W/m 16,1 km/h (3 Bft) 97,87 %
17.02.2023 14:32 14,8 C 13,9 C 10,6 C 81 % 1019,2 hPa 0,0 l/m 0 min 0 min 68 W/m 19,3 km/h (3 Bft) 97,87 %
17.02.2023 14:34 14,8 C 13,9 C 10,6 C 81 % 1019,2 hPa 0,0 l/m 0 min 0 min 83 W/m 19,3 km/h (3 Bft) 97,87 %
17.02.2023 14:36 14,7 C 13,9 C 10,6 C 81 % 1019,2 hPa 0,0 l/m 0 min 0 min 91 W/m 25,7 km/h (4 Bft) 93,62 %
17.02.2023 14:38 14,7 C 13,9 C 10,6 C 81 % 1019,2 hPa 0,0 l/m 0 min 0 min 89 W/m 29,0 km/h (5 Bft) 95,74 %
17.02.2023 14:40 14,7 C 14,4 C 10,6 C 80 % 1019,2 hPa 0,0 l/m 0 min 0 min 86 W/m 25,7 km/h (4 Bft) 97,83 %
17.02.2023 14:42 14,7 C 13,9 C 10,6 C 80 % 1019,2 hPa 0,0 l/m 0 min 0 min 85 W/m 25,7 km/h (4 Bft) 95,74 %
17.02.2023 14:44 14,6 C 13,9 C 10,0 C 81 % 1019,2 hPa 0,0 l/m 0 min 0 min 77 W/m 19,3 km/h (3 Bft) 97,87 %
17.02.2023 14:46 14,6 C 13,9 C 10,0 C 81 % 1019,1 hPa 0,0 l/m 0 min 0 min 77 W/m 32,2 km/h (5 Bft) 100,00 %
17.02.2023 14:48 14,6 C 13,9 C 10,0 C 81 % 1019,1 hPa 0,0 l/m 0 min 0 min 82 W/m 22,5 km/h (4 Bft) 100,00 %
17.02.2023 14:50 14,6 C 13,9 C 10,6 C 81 % 1019,1 hPa 0,0 l/m 0 min 0 min 101 W/m 19,3 km/h (3 Bft) 100,00 %
17.02.2023 14:52 14,6 C 14,4 C 10,6 C 81 % 1019,1 hPa 0,0 l/m 0 min 0 min 104 W/m 19,3 km/h (3 Bft) 97,87 %
17.02.2023 14:54 14,6 C 14,4 C 10,6 C 81 % 1019,1 hPa 0,0 l/m 0 min 0 min 116 W/m 19,3 km/h (3 Bft) 100,00 %
17.02.2023 14:56 14,6 C 14,4 C 10,6 C 81 % 1019,2 hPa 0,0 l/m 0 min 0 min 131 W/m 19,3 km/h (3 Bft) 100,00 %
17.02.2023 14:58 14,6 C 14,4 C 10,6 C 81 % 1019,3 hPa 0,0 l/m 0 min 0 min 94 W/m 29,0 km/h (5 Bft) 100,00 %
17.02.2023 15:00 14,6 C 13,9 C 10,6 C 80 % 1019,3 hPa 0,0 l/m 0 min 0 min 68 W/m 29,0 km/h (5 Bft) 100,00 %
17.02.2023 15:02 14,6 C 13,9 C 10,0 C 80 % 1019,4 hPa 0,0 l/m 0 min 0 min 49 W/m 51,5 km/h (7 Bft) 95,74 %
17.02.2023 15:04 14,6 C 13,9 C 10,0 C 80 % 1019,5 hPa 0,0 l/m 0 min 0 min 45 W/m 22,5 km/h (4 Bft) 97,87 %
17.02.2023 15:06 14,5 C 13,9 C 10,0 C 80 % 1019,5 hPa 0,0 l/m 0 min 0 min 41 W/m 19,3 km/h (3 Bft) 96,55 %
17.02.2023 15:08 14,5 C 13,9 C 10,0 C 81 % 1019,6 hPa 0,0 l/m 0 min 0 min 42 W/m 16,1 km/h (3 Bft) 100,00 %
17.02.2023 15:10 14,4 C 13,9 C 10,0 C 81 % 1019,7 hPa 0,0 l/m 0 min 0 min 42 W/m 19,3 km/h (3 Bft) 95,74 %
17.02.2023 15:12 14,4 C 13,9 C 10,0 C 81 % 1019,7 hPa 0,0 l/m 0 min 0 min 43 W/m 16,1 km/h (3 Bft) 93,62 %
17.02.2023 15:14 14,3 C 13,9 C 10,0 C 81 % 1019,7 hPa 0,0 l/m 0 min 0 min 45 W/m 29,0 km/h (5 Bft) 95,74 %
17.02.2023 15:16 14,3 C 13,3 C 10,0 C 81 % 1019,8 hPa 0,0 l/m 0 min 0 min 40 W/m 32,2 km/h (5 Bft) 93,62 %
17.02.2023 15:18 14,3 C 13,3 C 9,4 C 81 % 1019,9 hPa 0,0 l/m 0 min 0 min 40 W/m 25,7 km/h (4 Bft) 97,83 %
17.02.2023 15:20 14,3 C 13,3 C 9,4 C 81 % 1019,8 hPa 0,0 l/m 0 min 0 min 42 W/m 25,7 km/h (4 Bft) 97,87 %
17.02.2023 15:22 14,3 C 13,3 C 9,4 C 81 % 1019,8 hPa 0,0 l/m 0 min 0 min 43 W/m 25,7 km/h (4 Bft) 97,87 %
17.02.2023 15:24 14,3 C 13,3 C 9,4 C 81 % 1019,9 hPa 0,0 l/m 0 min 0 min 39 W/m 22,5 km/h (4 Bft) 97,87 %
17.02.2023 15:26 14,2 C 13,3 C 9,4 C 81 % 1019,9 hPa 0,0 l/m 0 min 0 min 41 W/m 29,0 km/h (5 Bft) 97,87 %
17.02.2023 15:28 14,2 C 13,3 C 9,4 C 81 % 1019,9 hPa 0,0 l/m 0 min 0 min 46 W/m 22,5 km/h (4 Bft) 95,74 %
17.02.2023 15:30 14,1 C 13,3 C 9,4 C 81 % 1020,0 hPa 0,0 l/m 0 min 0 min 42 W/m 16,1 km/h (3 Bft) 95,74 %
17.02.2023 15:32 14,1 C 13,3 C 9,4 C 81 % 1020,1 hPa 0,0 l/m 0 min 0 min 32 W/m 19,3 km/h (3 Bft) 97,83 %
17.02.2023 15:34 14,1 C 13,3 C 9,4 C 81 % 1020,1 hPa 0,0 l/m 0 min 0 min 24 W/m 19,3 km/h (3 Bft) 97,87 %
17.02.2023 15:36 14,1 C 13,3 C 9,4 C 82 % 1020,0 hPa 0,0 l/m 0 min 0 min 20 W/m 16,1 km/h (3 Bft) 97,87 %
17.02.2023 15:38 14,0 C 13,3 C 9,4 C 82 % 1020,0 hPa 0,0 l/m 0 min 0 min 21 W/m 22,5 km/h (4 Bft) 97,87 %
17.02.2023 15:40 13,9 C 13,3 C 9,4 C 82 % 1020,0 hPa 0,0 l/m 0 min 0 min 24 W/m 29,0 km/h (5 Bft) 100,00 %
17.02.2023 15:42 13,9 C 13,3 C 9,4 C 82 % 1020,0 hPa 0,0 l/m 0 min 0 min 25 W/m 22,5 km/h (4 Bft) 100,00 %
17.02.2023 15:44 13,9 C 13,3 C 9,4 C 81 % 1020,1 hPa 0,0 l/m 0 min 0 min 25 W/m 19,3 km/h (3 Bft) 100,00 %
17.02.2023 15:46 13,9 C 13,3 C 9,4 C 81 % 1020,2 hPa 0,0 l/m 0 min 0 min 22 W/m 32,2 km/h (5 Bft) 100,00 %
17.02.2023 15:48 13,8 C 12,8 C 9,4 C 82 % 1020,4 hPa 0,0 l/m 0 min 0 min 19 W/m 22,5 km/h (4 Bft) 100,00 %
17.02.2023 15:50 13,8 C 12,8 C 9,4 C 82 % 1020,3 hPa 0,0 l/m 0 min 0 min 20 W/m 25,7 km/h (4 Bft) 100,00 %
17.02.2023 15:52 13,7 C 12,8 C 9,4 C 82 % 1020,4 hPa 0,0 l/m 0 min 0 min 23 W/m 25,7 km/h (4 Bft) 100,00 %
17.02.2023 15:54 13,7 C 12,8 C 9,4 C 82 % 1020,4 hPa 0,0 l/m 0 min 0 min 24 W/m 22,5 km/h (4 Bft) 100,00 %
17.02.2023 15:56 13,7 C 12,8 C 9,4 C 82 % 1020,3 hPa 0,0 l/m 0 min 0 min 24 W/m 25,7 km/h (4 Bft) 97,87 %
17.02.2023 15:58 13,6 C 12,8 C 9,4 C 82 % 1020,3 hPa 0,0 l/m 0 min 0 min 25 W/m 19,3 km/h (3 Bft) 100,00 %
17.02.2023 16:00 13,6 C 12,8 C 9,4 C 82 % 1020,3 hPa 0,0 l/m 0 min 0 min 25 W/m 25,7 km/h (4 Bft) 100,00 %
17.02.2023 16:02 13,6 C 12,8 C 9,4 C 82 % 1020,3 hPa 0,0 l/m 0 min 0 min 24 W/m 19,3 km/h (3 Bft) 95,74 %
17.02.2023 16:04 13,5 C 12,8 C 8,9 C 82 % 1020,5 hPa 0,0 l/m 0 min 0 min 22 W/m 19,3 km/h (3 Bft) 97,87 %
17.02.2023 16:06 13,4 C 12,8 C 8,9 C 82 % 1020,4 hPa 0,0 l/m 0 min 0 min 18 W/m 22,5 km/h (4 Bft) 95,74 %
17.02.2023 16:08 13,4 C 12,8 C 8,9 C 83 % 1020,3 hPa 0,0 l/m 0 min 0 min 18 W/m 19,3 km/h (3 Bft) 97,87 %
17.02.2023 16:10 13,3 C 12,8 C 8,9 C 83 % 1020,3 hPa 0,0 l/m 0 min 0 min 19 W/m 29,0 km/h (5 Bft) 95,65 %
17.02.2023 16:12 13,3 C 12,8 C 8,9 C 83 % 1020,3 hPa 0,0 l/m 0 min 0 min 19 W/m 25,7 km/h (4 Bft) 95,74 %
17.02.2023 16:14 13,3 C 12,8 C 8,9 C 83 % 1020,3 hPa 0,0 l/m 0 min 0 min 21 W/m 22,5 km/h (4 Bft) 97,87 %
17.02.2023 16:16 13,4 C 12,8 C 9,4 C 83 % 1020,2 hPa 0,0 l/m 0 min 0 min 26 W/m 32,2 km/h (5 Bft) 95,74 %
17.02.2023 16:18 13,4 C 12,8 C 9,4 C 83 % 1020,3 hPa 0,0 l/m 0 min 0 min 29 W/m 32,2 km/h (5 Bft) 95,74 %
17.02.2023 16:20 13,4 C 12,8 C 9,4 C 83 % 1020,3 hPa 0,0 l/m 0 min 0 min 27 W/m 29,0 km/h (5 Bft) 97,87 %
17.02.2023 16:22 13,4 C 12,8 C 9,4 C 83 % 1020,3 hPa 0,0 l/m 0 min 0 min 22 W/m 25,7 km/h (4 Bft) 95,65 %
17.02.2023 16:24 13,4 C 12,8 C 8,9 C 84 % 1020,4 hPa 0,0 l/m 0 min 0 min 19 W/m 22,5 km/h (4 Bft) 97,87 %
17.02.2023 16:26 13,4 C 12,8 C 8,9 C 84 % 1020,5 hPa 0,0 l/m 0 min 0 min 18 W/m 25,7 km/h (4 Bft) 97,87 %
17.02.2023 16:28 13,4 C 12,8 C 8,9 C 84 % 1020,4 hPa 0,0 l/m 0 min 0 min 19 W/m 35,4 km/h (5 Bft) 95,74 %
17.02.2023 16:30 13,3 C 12,8 C 8,9 C 84 % 1020,4 hPa 0,0 l/m 0 min 0 min 17 W/m 25,7 km/h (4 Bft) 97,87 %
17.02.2023 16:32 13,3 C 12,8 C 8,9 C 84 % 1020,6 hPa 0,0 l/m 0 min 0 min 17 W/m 19,3 km/h (3 Bft) 97,87 %
17.02.2023 16:34 13,2 C 12,2 C 8,9 C 84 % 1020,5 hPa 0,0 l/m 0 min 0 min 17 W/m 22,5 km/h (4 Bft) 93,62 %
17.02.2023 16:36 13,2 C 12,2 C 8,9 C 84 % 1020,6 hPa 0,0 l/m 0 min 0 min 17 W/m 19,3 km/h (3 Bft) 97,83 %
17.02.2023 16:38 13,1 C 12,2 C 8,9 C 85 % 1020,6 hPa 0,0 l/m 0 min 0 min 16 W/m 12,9 km/h (3 Bft) 97,87 %
17.02.2023 16:40 13,1 C 12,2 C 8,9 C 85 % 1020,6 hPa 0,0 l/m 0 min 0 min 13 W/m 25,7 km/h (4 Bft) 97,87 %
17.02.2023 16:42 13,1 C 12,2 C 8,9 C 84 % 1020,7 hPa 0,0 l/m 0 min 0 min 11 W/m 16,1 km/h (3 Bft) 97,87 %
17.02.2023 16:44 13,1 C 12,2 C 8,9 C 85 % 1020,8 hPa 0,0 l/m 0 min 0 min 11 W/m 16,1 km/h (3 Bft) 95,74 %
17.02.2023 16:46 13,1 C 12,2 C 8,9 C 85 % 1020,8 hPa 0,0 l/m 0 min 0 min 11 W/m 25,7 km/h (4 Bft) 97,87 %
17.02.2023 16:48 13,0 C 12,2 C 8,9 C 85 % 1020,8 hPa 0,0 l/m 0 min 0 min 11 W/m 25,7 km/h (4 Bft) 95,65 %
17.02.2023 16:50 13,0 C 12,2 C 8,3 C 85 % 1020,8 hPa 0,0 l/m 0 min 0 min 11 W/m 32,2 km/h (5 Bft) 93,62 %
17.02.2023 16:52 13,0 C 12,2 C 8,3 C 85 % 1020,7 hPa 0,0 l/m 0 min 0 min 11 W/m 19,3 km/h (3 Bft) 95,74 %
17.02.2023 16:54 12,9 C 12,2 C 8,3 C 85 % 1020,7 hPa 0,0 l/m 0 min 0 min 17 W/m 22,5 km/h (4 Bft) 95,74 %
17.02.2023 16:56 12,9 C 12,2 C 8,3 C 85 % 1020,9 hPa 0,0 l/m 0 min 0 min 27 W/m 25,7 km/h (4 Bft) 97,87 %
17.02.2023 16:58 12,9 C 12,2 C 8,3 C 85 % 1020,8 hPa 0,0 l/m 0 min 0 min 27 W/m 22,5 km/h (4 Bft) 95,74 %
17.02.2023 17:00 12,8 C 12,2 C 8,3 C 85 % 1020,8 hPa 0,0 l/m 0 min 0 min 29 W/m 29,0 km/h (5 Bft) 93,62 %
17.02.2023 17:02 12,8 C 12,2 C 8,3 C 85 % 1020,8 hPa 0,0 l/m 0 min 0 min 38 W/m 25,7 km/h (4 Bft) 95,65 %
17.02.2023 17:04 12,8 C 12,2 C 8,3 C 85 % 1020,8 hPa 0,0 l/m 0 min 0 min 39 W/m 19,3 km/h (3 Bft) 92,68 %
17.02.2023 17:06 12,8 C 12,2 C 8,3 C 85 % 1020,8 hPa 0,0 l/m 0 min 0 min 35 W/m 25,7 km/h (4 Bft) 96,30 %
17.02.2023 17:08 12,8 C 12,2 C 8,3 C 85 % 1020,8 hPa 0,0 l/m 0 min 0 min 33 W/m 22,5 km/h (4 Bft) 93,62 %
17.02.2023 17:10 12,8 C 12,2 C 8,3 C 85 % 1020,7 hPa 0,0 l/m 0 min 0 min 32 W/m 19,3 km/h (3 Bft) 95,74 %
17.02.2023 17:12 12,8 C 12,2 C 8,3 C 85 % 1020,7 hPa 0,0 l/m 0 min 0 min 30 W/m 25,7 km/h (4 Bft) 93,62 %
17.02.2023 17:14 12,8 C 12,2 C 8,3 C 85 % 1020,7 hPa 0,0 l/m 0 min 0 min 29 W/m 22,5 km/h (4 Bft) 95,65 %
17.02.2023 17:16 12,7 C 12,2 C 8,3 C 85 % 1020,9 hPa 0,0 l/m 0 min 0 min 22 W/m 29,0 km/h (5 Bft) 95,74 %
17.02.2023 17:18 12,7 C 12,2 C 8,3 C 85 % 1020,9 hPa 0,0 l/m 0 min 0 min 18 W/m 32,2 km/h (5 Bft) 93,62 %
17.02.2023 17:20 12,7 C 12,2 C 8,3 C 85 % 1021,0 hPa 0,0 l/m 0 min 0 min 14 W/m 25,7 km/h (4 Bft) 95,74 %
17.02.2023 17:22 12,7 C 12,2 C 8,3 C 85 % 1021,1 hPa 0,0 l/m 0 min 0 min 14 W/m 16,1 km/h (3 Bft) 93,62 %
17.02.2023 17:24 12,7 C 12,2 C 8,3 C 85 % 1021,0 hPa 0,0 l/m 0 min 0 min 13 W/m 22,5 km/h (4 Bft) 95,74 %
17.02.2023 17:26 12,7 C 12,2 C 8,3 C 85 % 1021,0 hPa 0,0 l/m 0 min 0 min 11 W/m 19,3 km/h (3 Bft) 95,65 %
17.02.2023 17:28 12,7 C 12,2 C 8,3 C 85 % 1021,1 hPa 0,0 l/m 0 min 0 min 8 W/m 12,9 km/h (3 Bft) 97,87 %
17.02.2023 17:30 12,7 C 12,2 C 8,3 C 85 % 1021,1 hPa 0,0 l/m 0 min 0 min 6 W/m 16,1 km/h (3 Bft) 95,74 %
17.02.2023 17:32 12,6 C 12,2 C 8,3 C 85 % 1021,1 hPa 0,0 l/m 0 min 0 min 5 W/m 16,1 km/h (3 Bft) 97,87 %
17.02.2023 17:34 12,6 C 12,2 C 8,3 C 85 % 1021,2 hPa 0,0 l/m 0 min 0 min 2 W/m 22,5 km/h (4 Bft) 97,87 %
17.02.2023 17:36 12,6 C 12,2 C 8,3 C 85 % 1021,2 hPa 0,0 l/m 0 min 0 min 0 W/m 22,5 km/h (4 Bft) 100,00 %
17.02.2023 17:38 12,6 C 11,7 C 8,3 C 85 % 1021,2 hPa 0,0 l/m 0 min 0 min 0 W/m 22,5 km/h (4 Bft) 100,00 %
17.02.2023 17:40 12,6 C 11,7 C 8,3 C 85 % 1021,2 hPa 0,0 l/m 0 min 0 min 0 W/m 16,1 km/h (3 Bft) 100,00 %
17.02.2023 17:42 12,6 C 11,7 C 8,3 C 86 % 1021,4 hPa 0,0 l/m 0 min 0 min 0 W/m 16,1 km/h (3 Bft) 100,00 %
17.02.2023 17:44 12,6 C 11,7 C 8,3 C 86 % 1021,4 hPa 0,0 l/m 0 min 0 min 0 W/m 32,2 km/h (5 Bft) 100,00 %
17.02.2023 17:46 12,5 C 11,7 C 8,3 C 86 % 1021,5 hPa 0,0 l/m 0 min 0 min 0 W/m 22,5 km/h (4 Bft) 100,00 %
17.02.2023 17:48 12,5 C 11,7 C 8,3 C 86 % 1021,6 hPa 0,0 l/m 0 min 0 min 0 W/m 16,1 km/h (3 Bft) 100,00 %
17.02.2023 17:50 12,4 C 11,7 C 8,3 C 86 % 1021,6 hPa 0,0 l/m 0 min 0 min 0 W/m 19,3 km/h (3 Bft) 97,87 %
17.02.2023 17:52 12,4 C 11,7 C 8,3 C 86 % 1021,6 hPa 0,0 l/m 0 min 0 min 0 W/m 12,9 km/h (3 Bft) 100,00 %
17.02.2023 17:54 12,4 C 11,7 C 8,3 C 86 % 1021,6 hPa 0,0 l/m 0 min 0 min 0 W/m 19,3 km/h (3 Bft) 100,00 %
17.02.2023 17:56 12,4 C 11,7 C 7,8 C 86 % 1021,6 hPa 0,0 l/m 0 min 0 min 0 W/m 29,0 km/h (5 Bft) 100,00 %
17.02.2023 17:58 12,3 C 11,7 C 7,8 C 86 % 1021,7 hPa 0,0 l/m 0 min 0 min 0 W/m 19,3 km/h (3 Bft) 100,00 %
17.02.2023 18:00 12,3 C 11,7 C 7,8 C 86 % 1021,7 hPa 0,0 l/m 0 min 0 min 0 W/m 19,3 km/h (3 Bft) 100,00 %
17.02.2023 18:02 12,3 C 11,7 C 7,8 C 86 % 1021,7 hPa 0,0 l/m 0 min 0 min 0 W/m 16,1 km/h (3 Bft) 100,00 %
17.02.2023 18:04 12,3 C 11,7 C 7,8 C 87 % 1021,8 hPa 0,0 l/m 0 min 0 min 0 W/m 19,3 km/h (3 Bft) 100,00 %
17.02.2023 18:07 12,3 C 11,7 C 7,8 C 87 % 1021,8 hPa 0,0 l/m 0 min 0 min 0 W/m 25,7 km/h (4 Bft) 98,61 %
17.02.2023 18:08 12,2 C 11,7 C 7,8 C 87 % 1021,8 hPa 0,0 l/m 0 min 0 min 0 W/m 19,3 km/h (3 Bft) 100,00 %
17.02.2023 18:12 12,2 C 11,7 C 7,8 C 87 % 1021,8 hPa 0,0 l/m 0 min 0 min 0 W/m 16,1 km/h (3 Bft) 100,00 %
17.02.2023 18:14 12,2 C 11,7 C 7,8 C 87 % 1021,8 hPa 0,0 l/m 0 min 0 min 0 W/m 12,9 km/h (3 Bft) 100,00 %
17.02.2023 18:16 12,2 C 11,7 C 7,8 C 87 % 1021,7 hPa 0,0 l/m 0 min 0 min 0 W/m 29,0 km/h (5 Bft) 100,00 %
17.02.2023 18:18 12,2 C 11,7 C 7,8 C 87 % 1021,8 hPa 0,0 l/m 0 min 0 min 0 W/m 16,1 km/h (3 Bft) 97,87 %
17.02.2023 18:20 12,2 C 11,7 C 7,8 C 87 % 1021,7 hPa 0,0 l/m 0 min 0 min 0 W/m 22,5 km/h (4 Bft) 100,00 %
17.02.2023 18:22 12,2 C 11,7 C 7,8 C 87 % 1021,8 hPa 0,0 l/m 0 min 0 min 0 W/m 12,9 km/h (3 Bft) 97,87 %
17.02.2023 18:24 12,1 C 11,7 C 7,8 C 87 % 1021,9 hPa 0,0 l/m 0 min 0 min 0 W/m 19,3 km/h (3 Bft) 95,74 %
17.02.2023 18:26 12,1 C 11,7 C 7,8 C 87 % 1022,0 hPa 0,0 l/m 0 min 0 min 0 W/m 12,9 km/h (3 Bft) 97,87 %
17.02.2023 18:28 12,1 C 11,7 C 7,8 C 87 % 1021,9 hPa 0,0 l/m 0 min 0 min 0 W/m 19,3 km/h (3 Bft) 100,00 %
17.02.2023 18:30 12,1 C 11,7 C 7,8 C 88 % 1022,0 hPa 0,0 l/m 0 min 0 min 0 W/m 22,5 km/h (4 Bft) 97,87 %
17.02.2023 18:32 12,1 C 11,1 C 7,8 C 88 % 1022,0 hPa 0,0 l/m 0 min 0 min 0 W/m 12,9 km/h (3 Bft) 100,00 %
17.02.2023 18:34 12,1 C 11,1 C 7,8 C 88 % 1022,0 hPa 0,0 l/m 0 min 0 min 0 W/m 19,3 km/h (3 Bft) 97,87 %
17.02.2023 18:36 12,1 C 11,1 C 7,8 C 88 % 1022,0 hPa 0,0 l/m 0 min 0 min 0 W/m 19,3 km/h (3 Bft) 97,87 %
17.02.2023 18:38 12,1 C 11,1 C 7,8 C 88 % 1022,1 hPa 0,0 l/m 0 min 0 min 0 W/m 12,9 km/h (3 Bft) 97,87 %
17.02.2023 18:40 12,1 C 11,1 C 7,8 C 88 % 1022,1 hPa 0,0 l/m 0 min 0 min 0 W/m 16,1 km/h (3 Bft) 100,00 %
17.02.2023 18:42 12,0 C 11,1 C 7,8 C 88 % 1022,1 hPa 0,0 l/m 0 min 0 min 0 W/m 16,1 km/h (3 Bft) 97,87 %
17.02.2023 18:44 12,0 C 11,1 C 7,8 C 88 % 1022,1 hPa 0,0 l/m 0 min 0 min 0 W/m 19,3 km/h (3 Bft) 100,00 %
17.02.2023 18:46 12,0 C 11,1 C 7,8 C 88 % 1022,1 hPa 0,0 l/m 0 min 0 min 0 W/m 25,7 km/h (4 Bft) 100,00 %
17.02.2023 18:48 11,9 C 11,1 C 7,8 C 88 % 1022,1 hPa 0,0 l/m 0 min 0 min 0 W/m 16,1 km/h (3 Bft) 97,87 %
17.02.2023 18:50 11,9 C 11,1 C 7,8 C 88 % 1022,1 hPa 0,0 l/m 0 min 0 min 0 W/m 22,5 km/h (4 Bft) 100,00 %
17.02.2023 18:52 11,9 C 11,1 C 7,8 C 88 % 1022,1 hPa 0,0 l/m 0 min 0 min 0 W/m 16,1 km/h (3 Bft) 95,83 %
17.02.2023 18:54 11,9 C 11,1 C 7,8 C 88 % 1022,1 hPa 0,0 l/m 0 min 0 min 0 W/m 16,1 km/h (3 Bft) 97,87 %
17.02.2023 18:56 11,9 C 11,1 C 7,8 C 88 % 1022,3 hPa 0,0 l/m 0 min 0 min 0 W/m 12,9 km/h (3 Bft) 95,74 %
17.02.2023 18:58 11,9 C 11,1 C 7,8 C 88 % 1022,2 hPa 0,0 l/m 0 min 0 min 0 W/m 19,3 km/h (3 Bft) 95,65 %
17.02.2023 19:00 11,9 C 11,1 C 7,8 C 88 % 1022,2 hPa 0,0 l/m 0 min 0 min 0 W/m 16,1 km/h (3 Bft) 95,74 %
17.02.2023 19:02 11,9 C 11,1 C 7,8 C 88 % 1022,3 hPa 0,0 l/m 0 min 0 min 0 W/m 16,1 km/h (3 Bft) 96,08 %
17.02.2023 19:04 11,9 C 11,1 C 7,8 C 88 % 1022,3 hPa 0,0 l/m 0 min 0 min 0 W/m 12,9 km/h (3 Bft) 95,74 %
17.02.2023 19:06 11,9 C 11,1 C 7,8 C 88 % 1022,4 hPa 0,0 l/m 0 min 0 min 0 W/m 19,3 km/h (3 Bft) 95,74 %
17.02.2023 19:08 11,9 C 11,1 C 7,8 C 88 % 1022,3 hPa 0,0 l/m 0 min 0 min 0 W/m 12,9 km/h (3 Bft) 95,74 %
17.02.2023 19:10 11,9 C 11,1 C 7,8 C 88 % 1022,4 hPa 0,0 l/m 0 min 0 min 0 W/m 12,9 km/h (3 Bft) 91,30 %
17.02.2023 19:12 11,9 C 11,1 C 7,8 C 88 % 1022,5 hPa 0,0 l/m 0 min 0 min 0 W/m 16,1 km/h (3 Bft) 95,74 %
17.02.2023 19:15 11,9 C 11,1 C 7,8 C 88 % 1022,5 hPa 0,0 l/m 0 min 0 min 0 W/m 25,7 km/h (4 Bft) 98,25 %
17.02.2023 19:16 11,9 C 11,1 C 7,8 C 88 % 1022,5 hPa 0,0 l/m 0 min 0 min 0 W/m 12,9 km/h (3 Bft) 96,68 %
17.02.2023 19:18 11,9 C 11,1 C 7,8 C 88 % 1022,5 hPa 0,0 l/m 0 min 0 min 0 W/m 16,1 km/h (3 Bft) 97,22 %
17.02.2023 19:20 11,9 C 11,1 C 7,8 C 88 % 1022,6 hPa 0,0 l/m 0 min 0 min 0 W/m 16,1 km/h (3 Bft) 93,48 %
17.02.2023 19:22 11,9 C 11,1 C 7,8 C 88 % 1022,6 hPa 0,0 l/m 0 min 0 min 0 W/m 16,1 km/h (3 Bft) 95,74 %
17.02.2023 19:24 11,9 C 11,1 C 7,8 C 88 % 1022,7 hPa 0,0 l/m 0 min 0 min 0 W/m 22,5 km/h (4 Bft) 95,74 %
17.02.2023 19:26 11,9 C 11,1 C 7,8 C 88 % 1022,7 hPa 0,0 l/m 0 min 0 min 0 W/m 12,9 km/h (3 Bft) 93,75 %
17.02.2023 19:28 11,9 C 11,1 C 7,8 C 88 % 1022,7 hPa 0,0 l/m 0 min 0 min 0 W/m 16,1 km/h (3 Bft) 95,74 %
17.02.2023 19:30 11,9 C 11,1 C 7,8 C 88 % 1022,6 hPa 0,0 l/m 0 min 0 min 0 W/m 16,1 km/h (3 Bft) 95,74 %
17.02.2023 19:32 11,9 C 11,1 C 7,8 C 89 % 1022,7 hPa 0,0 l/m 0 min 0 min 0 W/m 16,1 km/h (3 Bft) 95,65 %
17.02.2023 19:34 11,9 C 11,1 C 7,8 C 89 % 1022,7 hPa 0,0 l/m 0 min 0 min 0 W/m 12,9 km/h (3 Bft) 95,74 %
17.02.2023 19:36 11,9 C 11,1 C 7,8 C 89 % 1022,7 hPa 0,0 l/m 0 min 0 min 0 W/m 19,3 km/h (3 Bft) 93,62 %
17.02.2023 19:38 11,9 C 11,1 C 7,8 C 89 % 1022,8 hPa 0,0 l/m 0 min 0 min 0 W/m 32,2 km/h (5 Bft) 95,74 %
17.02.2023 19:40 11,9 C 11,1 C 7,8 C 89 % 1022,8 hPa 0,0 l/m 0 min 0 min 0 W/m 12,9 km/h (3 Bft) 95,74 %
17.02.2023 19:42 11,9 C 11,1 C 7,8 C 89 % 1022,8 hPa 0,0 l/m 0 min 0 min 0 W/m 19,3 km/h (3 Bft) 93,62 %
17.02.2023 19:44 11,9 C 11,1 C 7,8 C 89 % 1022,8 hPa 0,0 l/m 0 min 0 min 0 W/m 32,2 km/h (5 Bft) 97,87 %
17.02.2023 19:46 11,9 C 11,1 C 7,8 C 89 % 1022,8 hPa 0,0 l/m 0 min 0 min 0 W/m 19,3 km/h (3 Bft) 97,22 %
17.02.2023 19:48 11,9 C 11,1 C 7,8 C 89 % 1022,8 hPa 0,0 l/m 0 min 0 min 0 W/m 16,1 km/h (3 Bft) 95,92 %
17.02.2023 19:50 11,9 C 11,1 C 7,8 C 89 % 1022,9 hPa 0,0 l/m 0 min 0 min 0 W/m 29,0 km/h (5 Bft) 97,87 %
17.02.2023 19:52 11,8 C 11,1 C 7,8 C 89 % 1022,9 hPa 0,0 l/m 0 min 0 min 0 W/m 19,3 km/h (3 Bft) 95,74 %
17.02.2023 19:54 11,8 C 11,1 C 7,8 C 89 % 1022,9 hPa 0,0 l/m 0 min 0 min 0 W/m 16,1 km/h (3 Bft) 97,87 %
17.02.2023 19:56 11,8 C 11,1 C 7,8 C 89 % 1022,9 hPa 0,0 l/m 0 min 0 min 0 W/m 25,7 km/h (4 Bft) 97,87 %
17.02.2023 19:58 11,8 C 11,1 C 7,8 C 89 % 1022,9 hPa 0,0 l/m 0 min 0 min 0 W/m 16,1 km/h (3 Bft) 91,49 %
17.02.2023 20:00 11,8 C 11,1 C 7,8 C 89 % 1022,8 hPa 0,0 l/m 0 min 0 min 0 W/m 16,1 km/h (3 Bft) 97,83 %
17.02.2023 20:02 11,8 C 11,1 C 7,8 C 89 % 1022,9 hPa 0,0 l/m 0 min 0 min 0 W/m 16,1 km/h (3 Bft) 97,87 %
17.02.2023 20:04 11,8 C 11,1 C 7,8 C 89 % 1023,0 hPa 0,0 l/m 0 min 0 min 0 W/m 12,9 km/h (3 Bft) 97,87 %
17.02.2023 20:06 11,8 C 11,1 C 7,8 C 89 % 1023,0 hPa 0,0 l/m 0 min 0 min 0 W/m 19,3 km/h (3 Bft) 96,61 %
17.02.2023 20:08 11,8 C 11,1 C 7,8 C 89 % 1022,9 hPa 0,0 l/m 0 min 0 min 0 W/m 12,9 km/h (3 Bft) 100,00 %
17.02.2023 20:10 11,8 C 11,1 C 7,8 C 89 % 1022,9 hPa 0,0 l/m 0 min 0 min 0 W/m 19,3 km/h (3 Bft) 97,87 %
17.02.2023 20:12 11,8 C 11,1 C 7,8 C 89 % 1022,9 hPa 0,0 l/m 0 min 0 min 0 W/m 16,1 km/h (3 Bft) 97,83 %
17.02.2023 20:14 11,8 C 11,1 C 7,8 C 90 % 1022,9 hPa 0,0 l/m 0 min 0 min 0 W/m 22,5 km/h (4 Bft) 100,00 %
17.02.2023 20:16 11,8 C 11,1 C 7,8 C 89 % 1023,0 hPa 0,0 l/m 0 min 0 min 0 W/m 16,1 km/h (3 Bft) 97,87 %
17.02.2023 20:18 11,8 C 11,1 C 7,8 C 89 % 1023,1 hPa 0,0 l/m 0 min 0 min 0 W/m 25,7 km/h (4 Bft) 100,00 %
17.02.2023 20:20 11,8 C 11,1 C 7,8 C 89 % 1023,0 hPa 0,0 l/m 0 min 0 min 0 W/m 22,5 km/h (4 Bft) 100,00 %
17.02.2023 20:22 11,8 C 11,1 C 7,8 C 89 % 1023,0 hPa 0,0 l/m 0 min 0 min 0 W/m 22,5 km/h (4 Bft) 97,87 %
17.02.2023 20:24 11,8 C 11,1 C 7,8 C 89 % 1023,0 hPa 0,0 l/m 0 min 0 min 0 W/m 19,3 km/h (3 Bft) 100,00 %
17.02.2023 20:26 11,8 C 11,1 C 7,8 C 90 % 1023,1 hPa 0,0 l/m 0 min 0 min 0 W/m 19,3 km/h (3 Bft) 100,00 %
17.02.2023 20:28 11,7 C 11,1 C 7,8 C 90 % 1023,1 hPa 0,0 l/m 0 min 0 min 0 W/m 16,1 km/h (3 Bft) 100,00 %
17.02.2023 20:30 11,7 C 11,1 C 7,8 C 90 % 1023,1 hPa 0,0 l/m 0 min 0 min 0 W/m 16,1 km/h (3 Bft) 100,00 %
17.02.2023 20:32 11,7 C 11,1 C 7,8 C 90 % 1023,0 hPa 0,0 l/m 0 min 0 min 0 W/m 22,5 km/h (4 Bft) 97,87 %
17.02.2023 20:34 11,7 C 11,1 C 7,8 C 90 % 1023,1 hPa 0,0 l/m 0 min 0 min 0 W/m 9,7 km/h (2 Bft) 97,87 %
17.02.2023 20:36 11,7 C 11,1 C 7,2 C 90 % 1023,1 hPa 0,0 l/m 0 min 0 min 0 W/m 16,1 km/h (3 Bft) 97,87 %
17.02.2023 20:38 11,7 C 11,1 C 7,2 C 90 % 1023,1 hPa 0,0 l/m 0 min 0 min 0 W/m 16,1 km/h (3 Bft) 97,83 %
17.02.2023 20:40 11,7 C 11,1 C 7,2 C 90 % 1023,2 hPa 0,0 l/m 0 min 0 min 0 W/m 12,9 km/h (3 Bft) 97,87 %
17.02.2023 20:42 11,7 C 11,1 C 7,2 C 90 % 1023,2 hPa 0,0 l/m 0 min 0 min 0 W/m 16,1 km/h (3 Bft) 95,74 %
17.02.2023 20:44 11,7 C 11,1 C 7,2 C 90 % 1023,2 hPa 0,0 l/m 0 min 0 min 0 W/m 16,1 km/h (3 Bft) 97,87 %
17.02.2023 20:46 11,6 C 11,1 C 7,2 C 90 % 1023,3 hPa 0,0 l/m 0 min 0 min 0 W/m 29,0 km/h (5 Bft) 97,87 %
17.02.2023 20:48 11,6 C 11,1 C 7,2 C 90 % 1023,2 hPa 0,0 l/m 0 min 0 min 0 W/m 19,3 km/h (3 Bft) 97,87 %
17.02.2023 20:50 11,6 C 11,1 C 7,2 C 90 % 1023,2 hPa 0,0 l/m 0 min 0 min 0 W/m 12,9 km/h (3 Bft) 97,83 %
17.02.2023 20:52 11,6 C 11,1 C 7,2 C 90 % 1023,2 hPa 0,0 l/m 0 min 0 min 0 W/m 22,5 km/h (4 Bft) 96,23 %
17.02.2023 20:54 11,6 C 11,1 C 7,2 C 90 % 1023,2 hPa 0,0 l/m 0 min 0 min 0 W/m 29,0 km/h (5 Bft) 97,87 %
17.02.2023 20:56 11,6 C 11,1 C 7,2 C 90 % 1023,2 hPa 0,0 l/m 0 min 0 min 0 W/m 35,4 km/h (5 Bft) 97,87 %
17.02.2023 20:58 11,6 C 11,1 C 7,2 C 90 % 1023,2 hPa 0,0 l/m 0 min 0 min 0 W/m 12,9 km/h (3 Bft) 95,74 %
17.02.2023 21:00 11,6 C 11,1 C 7,2 C 90 % 1023,3 hPa 0,0 l/m 0 min 0 min 0 W/m 16,1 km/h (3 Bft) 97,87 %
17.02.2023 21:02 11,6 C 11,1 C 7,2 C 90 % 1023,3 hPa 0,0 l/m 0 min 0 min 0 W/m 16,1 km/h (3 Bft) 97,87 %
17.02.2023 21:04 11,6 C 10,6 C 7,2 C 90 % 1023,3 hPa 0,0 l/m 0 min 0 min 0 W/m 22,5 km/h (4 Bft) 97,56 %
17.02.2023 21:06 11,6 C 10,6 C 7,2 C 90 % 1023,3 hPa 0,0 l/m 0 min 0 min 0 W/m 12,9 km/h (3 Bft) 98,11 %
17.02.2023 21:08 11,6 C 11,1 C 7,2 C 90 % 1023,3 hPa 0,0 l/m 0 min 0 min 0 W/m 19,3 km/h (3 Bft) 97,87 %
17.02.2023 21:10 11,6 C 10,6 C 7,2 C 90 % 1023,4 hPa 0,0 l/m 0 min 0 min 0 W/m 16,1 km/h (3 Bft) 95,83 %
17.02.2023 21:12 11,6 C 11,1 C 7,2 C 90 % 1023,4 hPa 0,0 l/m 0 min 0 min 0 W/m 16,1 km/h (3 Bft) 97,87 %
17.02.2023 21:14 11,6 C 10,6 C 7,2 C 90 % 1023,4 hPa 0,0 l/m 0 min 0 min 0 W/m 19,3 km/h (3 Bft) 95,74 %
17.02.2023 21:16 11,6 C 10,6 C 7,2 C 90 % 1023,4 hPa 0,0 l/m 0 min 0 min 0 W/m 12,9 km/h (3 Bft) 100,00 %
17.02.2023 21:18 11,6 C 10,6 C 7,2 C 90 % 1023,4 hPa 0,0 l/m 0 min 0 min 0 W/m 22,5 km/h (4 Bft) 97,83 %
17.02.2023 21:20 11,6 C 10,6 C 7,2 C 90 % 1023,4 hPa 0,0 l/m 0 min 0 min 0 W/m 19,3 km/h (3 Bft) 97,87 %
17.02.2023 21:22 11,6 C 10,6 C 7,2 C 90 % 1023,4 hPa 0,0 l/m 0 min 0 min 0 W/m 12,9 km/h (3 Bft) 100,00 %
17.02.2023 21:24 11,6 C 10,6 C 7,2 C 90 % 1023,3 hPa 0,0 l/m 0 min 0 min 0 W/m 16,1 km/h (3 Bft) 100,00 %
17.02.2023 21:26 11,5 C 10,6 C 7,2 C 90 % 1023,3 hPa 0,0 l/m 0 min 0 min 0 W/m 12,9 km/h (3 Bft) 95,74 %
17.02.2023 21:28 11,5 C 10,6 C 7,2 C 90 % 1023,3 hPa 0,0 l/m 0 min 0 min 0 W/m 25,7 km/h (4 Bft) 100,00 %
17.02.2023 21:30 11,5 C 10,6 C 7,2 C 90 % 1023,3 hPa 0,0 l/m 0 min 0 min 0 W/m 25,7 km/h (4 Bft) 100,00 %
17.02.2023 21:32 11,5 C 10,6 C 7,2 C 90 % 1023,3 hPa 0,0 l/m 0 min 0 min 0 W/m 19,3 km/h (3 Bft) 97,87 %
17.02.2023 21:34 11,5 C 10,6 C 7,2 C 90 % 1023,3 hPa 0,0 l/m 0 min 0 min 0 W/m 16,1 km/h (3 Bft) 100,00 %
17.02.2023 21:36 11,5 C 10,6 C 7,2 C 90 % 1023,2 hPa 0,0 l/m 0 min 0 min 0 W/m 19,3 km/h (3 Bft) 100,00 %
17.02.2023 21:38 11,5 C 10,6 C 7,2 C 90 % 1023,4 hPa 0,0 l/m 0 min 0 min 0 W/m 12,9 km/h (3 Bft) 100,00 %
17.02.2023 21:40 11,5 C 10,6 C 7,2 C 90 % 1023,4 hPa 0,0 l/m 0 min 0 min 0 W/m 22,5 km/h (4 Bft) 100,00 %
17.02.2023 21:42 11,4 C 10,6 C 7,2 C 90 % 1023,3 hPa 0,0 l/m 0 min 0 min 0 W/m 16,1 km/h (3 Bft) 97,83 %
17.02.2023 21:44 11,4 C 10,6 C 7,2 C 90 % 1023,3 hPa 0,0 l/m 0 min 0 min 0 W/m 16,1 km/h (3 Bft) 97,87 %
17.02.2023 21:46 11,4 C 10,6 C 7,2 C 90 % 1023,4 hPa 0,0 l/m 0 min 0 min 0 W/m 22,5 km/h (4 Bft) 100,00 %
17.02.2023 21:48 11,4 C 10,6 C 7,2 C 90 % 1023,4 hPa 0,0 l/m 0 min 0 min 0 W/m 25,7 km/h (4 Bft) 95,74 %
17.02.2023 21:50 11,4 C 10,6 C 7,2 C 90 % 1023,4 hPa 0,0 l/m 0 min 0 min 0 W/m 12,9 km/h (3 Bft) 97,92 %
17.02.2023 21:52 11,4 C 10,6 C 7,2 C 90 % 1023,4 hPa 0,0 l/m 0 min 0 min 0 W/m 16,1 km/h (3 Bft) 97,87 %
17.02.2023 21:54 11,4 C 10,6 C 7,2 C 91 % 1023,5 hPa 0,0 l/m 0 min 0 min 0 W/m 9,7 km/h (2 Bft) 97,87 %
17.02.2023 21:56 11,4 C 10,6 C 7,2 C 91 % 1023,5 hPa 0,0 l/m 0 min 0 min 0 W/m 16,1 km/h (3 Bft) 95,65 %
17.02.2023 21:58 11,4 C 10,6 C 7,2 C 91 % 1023,6 hPa 0,0 l/m 0 min 0 min 0 W/m 16,1 km/h (3 Bft) 97,87 %
17.02.2023 22:00 11,4 C 10,6 C 7,2 C 91 % 1023,5 hPa 0,0 l/m 0 min 0 min 0 W/m 25,7 km/h (4 Bft) 97,37 %
17.02.2023 22:02 11,4 C 10,6 C 7,2 C 91 % 1023,5 hPa 0,0 l/m 0 min 0 min 0 W/m 41,8 km/h (6 Bft) 95,74 %
17.02.2023 22:04 11,4 C 10,6 C 7,2 C 91 % 1023,5 hPa 0,0 l/m 0 min 0 min 0 W/m 22,5 km/h (4 Bft) 95,83 %
17.02.2023 22:06 11,4 C 10,6 C 7,2 C 91 % 1023,5 hPa 0,0 l/m 0 min 0 min 0 W/m 12,9 km/h (3 Bft) 93,22 %
17.02.2023 22:08 11,4 C 10,6 C 7,2 C 91 % 1023,6 hPa 0,0 l/m 0 min 0 min 0 W/m 19,3 km/h (3 Bft) 94,29 %
17.02.2023 22:10 11,3 C 10,6 C 7,2 C 91 % 1023,6 hPa 0,0 l/m 0 min 0 min 0 W/m 19,3 km/h (3 Bft) 96,30 %
17.02.2023 22:12 11,3 C 10,6 C 7,2 C 91 % 1023,6 hPa 0,0 l/m 0 min 0 min 0 W/m 29,0 km/h (5 Bft) 95,65 %
17.02.2023 22:14 11,3 C 10,6 C 7,2 C 91 % 1023,5 hPa 0,0 l/m 0 min 0 min 0 W/m 22,5 km/h (4 Bft) 95,74 %
17.02.2023 22:16 11,3 C 10,6 C 7,2 C 91 % 1023,5 hPa 0,0 l/m 0 min 0 min 0 W/m 25,7 km/h (4 Bft) 95,74 %
17.02.2023 22:18 11,3 C 10,6 C 7,2 C 91 % 1023,5 hPa 0,0 l/m 0 min 0 min 0 W/m 22,5 km/h (4 Bft) 95,74 %
17.02.2023 22:20 11,3 C 10,6 C 7,2 C 91 % 1023,6 hPa 0,0 l/m 0 min 0 min 0 W/m 16,1 km/h (3 Bft) 93,62 %
17.02.2023 22:22 11,3 C 10,6 C 7,2 C 91 % 1023,6 hPa 0,0 l/m 0 min 0 min 0 W/m 25,7 km/h (4 Bft) 95,74 %
17.02.2023 22:24 11,3 C 10,6 C 7,2 C 91 % 1023,6 hPa 0,0 l/m 0 min 0 min 0 W/m 16,1 km/h (3 Bft) 93,48 %
17.02.2023 22:26 11,3 C 10,6 C 7,2 C 91 % 1023,6 hPa 0,0 l/m 0 min 0 min 0 W/m 12,9 km/h (3 Bft) 93,62 %
17.02.2023 22:28 11,3 C 10,6 C 7,2 C 91 % 1023,6 hPa 0,0 l/m 0 min 0 min 0 W/m 19,3 km/h (3 Bft) 93,62 %
17.02.2023 22:30 11,3 C 10,6 C 7,2 C 91 % 1023,6 hPa 0,0 l/m 0 min 0 min 0 W/m 16,1 km/h (3 Bft) 93,62 %
17.02.2023 22:32 11,3 C 10,6 C 7,2 C 91 % 1023,5 hPa 0,0 l/m 0 min 0 min 0 W/m 19,3 km/h (3 Bft) 95,74 %
17.02.2023 22:34 11,3 C 10,6 C 7,2 C 91 % 1023,5 hPa 0,0 l/m 0 min 0 min 0 W/m 22,5 km/h (4 Bft) 95,74 %
17.02.2023 22:36 11,3 C 10,6 C 7,2 C 91 % 1023,6 hPa 0,0 l/m 0 min 0 min 0 W/m 16,1 km/h (3 Bft) 95,74 %
17.02.2023 22:38 11,3 C 10,6 C 7,2 C 91 % 1023,7 hPa 0,0 l/m 0 min 0 min 0 W/m 29,0 km/h (5 Bft) 93,48 %
17.02.2023 22:40 11,3 C 10,6 C 7,2 C 91 % 1023,7 hPa 0,0 l/m 0 min 0 min 0 W/m 22,5 km/h (4 Bft) 95,83 %
17.02.2023 22:42 11,3 C 10,6 C 7,2 C 91 % 1023,7 hPa 0,0 l/m 0 min 0 min 0 W/m 16,1 km/h (3 Bft) 97,87 %
17.02.2023 22:44 11,3 C 10,6 C 7,2 C 91 % 1023,7 hPa 0,0 l/m 0 min 0 min 0 W/m 16,1 km/h (3 Bft) 95,74 %
17.02.2023 22:46 11,2 C 10,6 C 7,2 C 91 % 1023,7 hPa 0,0 l/m 0 min 0 min 0 W/m 16,1 km/h (3 Bft) 95,74 %
17.02.2023 22:48 11,2 C 10,6 C 7,2 C 91 % 1023,8 hPa 0,0 l/m 0 min 0 min 0 W/m 19,3 km/h (3 Bft) 95,74 %
17.02.2023 22:50 11,2 C 10,6 C 7,2 C 91 % 1023,7 hPa 0,0 l/m 0 min 0 min 0 W/m 16,1 km/h (3 Bft) 97,83 %
17.02.2023 22:52 11,2 C 10,6 C 7,2 C 91 % 1023,7 hPa 0,0 l/m 0 min 0 min 0 W/m 19,3 km/h (3 Bft) 95,74 %
17.02.2023 22:54 11,2 C 10,6 C 7,2 C 91 % 1023,6 hPa 0,0 l/m 0 min 0 min 0 W/m 16,1 km/h (3 Bft) 95,74 %
17.02.2023 22:56 11,2 C 10,6 C 7,2 C 91 % 1023,7 hPa 0,0 l/m 0 min 0 min 0 W/m 19,3 km/h (3 Bft) 97,87 %
17.02.2023 22:58 11,2 C 10,6 C 7,2 C 91 % 1023,8 hPa 0,0 l/m 0 min 0 min 0 W/m 16,1 km/h (3 Bft) 98,00 %
17.02.2023 23:00 11,2 C 10,6 C 7,2 C 91 % 1023,7 hPa 0,0 l/m 0 min 0 min 0 W/m 22,5 km/h (4 Bft) 97,87 %
17.02.2023 23:02 11,2 C 10,6 C 7,2 C 91 % 1023,8 hPa 0,0 l/m 0 min 0 min 0 W/m 16,1 km/h (3 Bft) 91,67 %
17.02.2023 23:04 11,2 C 10,6 C 7,2 C 91 % 1023,7 hPa 0,0 l/m 0 min 0 min 0 W/m 12,9 km/h (3 Bft) 97,14 %
17.02.2023 23:06 11,2 C 10,6 C 7,2 C 91 % 1023,7 hPa 0,0 l/m 0 min 0 min 0 W/m 16,1 km/h (3 Bft) 98,31 %
17.02.2023 23:08 11,2 C 10,6 C 7,2 C 91 % 1023,7 hPa 0,0 l/m 0 min 0 min 0 W/m 12,9 km/h (3 Bft) 97,14 %
17.02.2023 23:10 11,2 C 10,6 C 7,2 C 91 % 1023,6 hPa 0,0 l/m 0 min 0 min 0 W/m 19,3 km/h (3 Bft) 97,87 %
17.02.2023 23:12 11,2 C 10,6 C 7,2 C 92 % 1023,6 hPa 0,0 l/m 0 min 0 min 0 W/m 12,9 km/h (3 Bft) 97,87 %
17.02.2023 23:14 11,2 C 10,6 C 7,2 C 92 % 1023,6 hPa 0,0 l/m 0 min 0 min 0 W/m 22,5 km/h (4 Bft) 97,87 %
17.02.2023 23:16 11,2 C 10,6 C 7,2 C 92 % 1023,6 hPa 0,0 l/m 0 min 0 min 0 W/m 16,1 km/h (3 Bft) 100,00 %
17.02.2023 23:18 11,2 C 10,6 C 7,2 C 92 % 1023,5 hPa 0,0 l/m 0 min 0 min 0 W/m 19,3 km/h (3 Bft) 100,00 %
17.02.2023 23:20 11,1 C 10,6 C 7,2 C 92 % 1023,6 hPa 0,0 l/m 0 min 0 min 0 W/m 16,1 km/h (3 Bft) 100,00 %
17.02.2023 23:22 11,1 C 10,6 C 7,2 C 92 % 1023,6 hPa 0,0 l/m 0 min 0 min 0 W/m 19,3 km/h (3 Bft) 100,00 %
17.02.2023 23:24 11,1 C 10,6 C 7,2 C 92 % 1023,6 hPa 0,0 l/m 0 min 0 min 0 W/m 19,3 km/h (3 Bft) 100,00 %
17.02.2023 23:26 11,1 C 10,6 C 7,2 C 92 % 1023,7 hPa 0,0 l/m 0 min 0 min 0 W/m 12,9 km/h (3 Bft) 100,00 %
17.02.2023 23:28 11,1 C 10,6 C 7,2 C 92 % 1023,7 hPa 0,0 l/m 0 min 0 min 0 W/m 16,1 km/h (3 Bft) 100,00 %
17.02.2023 23:30 11,1 C 10,6 C 7,2 C 92 % 1023,6 hPa 0,0 l/m 0 min 0 min 0 W/m 29,0 km/h (5 Bft) 97,83 %
17.02.2023 23:32 11,1 C 10,6 C 7,2 C 92 % 1023,6 hPa 0,0 l/m 0 min 0 min 0 W/m 12,9 km/h (3 Bft) 97,87 %
17.02.2023 23:34 11,1 C 10,6 C 7,2 C 92 % 1023,6 hPa 0,0 l/m 0 min 0 min 0 W/m 12,9 km/h (3 Bft) 100,00 %
17.02.2023 23:36 11,1 C 10,6 C 7,2 C 92 % 1023,7 hPa 0,0 l/m 0 min 0 min 0 W/m 16,1 km/h (3 Bft) 97,87 %
17.02.2023 23:38 11,1 C 10,6 C 7,2 C 92 % 1023,5 hPa 0,0 l/m 0 min 0 min 0 W/m 16,1 km/h (3 Bft) 100,00 %
17.02.2023 23:40 11,1 C 10,6 C 7,2 C 92 % 1023,5 hPa 0,0 l/m 0 min 0 min 0 W/m 25,7 km/h (4 Bft) 100,00 %
17.02.2023 23:42 11,1 C 10,6 C 7,2 C 92 % 1023,5 hPa 0,0 l/m 0 min 0 min 0 W/m 12,9 km/h (3 Bft) 97,83 %
17.02.2023 23:44 11,1 C 10,6 C 7,2 C 92 % 1023,4 hPa 0,0 l/m 0 min 0 min 0 W/m 16,1 km/h (3 Bft) 100,00 %
17.02.2023 23:46 11,1 C 10,6 C 7,2 C 92 % 1023,4 hPa 0,0 l/m 0 min 0 min 0 W/m 19,3 km/h (3 Bft) 100,00 %
17.02.2023 23:48 11,1 C 10,6 C 7,2 C 92 % 1023,4 hPa 0,0 l/m 0 min 0 min 0 W/m 16,1 km/h (3 Bft) 100,00 %
17.02.2023 23:50 11,1 C 10,6 C 7,2 C 92 % 1023,5 hPa 0,0 l/m 0 min 0 min 0 W/m 12,9 km/h (3 Bft) 100,00 %
17.02.2023 23:52 11,1 C 10,6 C 7,2 C 92 % 1023,5 hPa 0,0 l/m 0 min 0 min 0 W/m 12,9 km/h (3 Bft) 98,11 %
17.02.2023 23:54 11,1 C 10,6 C 7,2 C 92 % 1023,6 hPa 0,0 l/m 0 min 0 min 0 W/m 19,3 km/h (3 Bft) 100,00 %
17.02.2023 23:56 11,1 C 10,6 C 7,2 C 92 % 1023,5 hPa 0,0 l/m 0 min 0 min 0 W/m 6,4 km/h (2 Bft) 100,00 %
17.02.2023 23:58 11,1 C 10,6 C 7,2 C 92 % 1023,6 hPa 0,0 l/m 0 min 0 min 0 W/m 16,1 km/h (3 Bft) 100,00 %
_ Min-Zeit 00:00 00:00 00:00 14:40 13:52 - - - - 03:38 10:52
Minimum _ 10,6 C 10,0 C 6,1 C 80 % 1018,7 hPa - - - - 6,4 km/h (2 Bft) 23,08 %
_ Max-Zeit 13:46 13:34 13:44 07:54 22:48 00:00 11:24 07:42 13:44 15:02 00:22
Maximum _ 14,9 C 15,6 C 11,1 C 92 % 1023,8 hPa 0,0 l/m 2 min 2 min 262 W/m 51,5 km/h
NW (7 Bft)
100,00 %
Durchschnitt _ 11,9 C 11,3 C 7,7 C 88 % 1020,7 hPa #0,0 l/m #20 min. #18 min. 91 W/m 21,0 km/h (4 Bft) 96,79 %
© 2023 W. Hausmann